[{"header": {"dx": 0.06612293990616946, "dy": 0.0552356325346848, "nx": 98, "ny": 59, "la1": 35.046912555036876, "la2": 31.78801023549047, "lo1": -121.43107172385933, "lo2": -114.95102361305473, "refTime": "2026041601", "parameterCategory": 1, "parameterNumber": 2}, "data": [9.21, 9.49, 10.13, 10.13, 10.13, 10.13, 10.13, 9.82, 10.09, 9.46, 8.78, 7.8, 8.05, 7.35, 6.94, 6.21, 6.26, 5.81, 6.26, 6.26, 6.26, 6.71, 6.26, 7.15, 6.94, 4.11, 0.0, -1.84, -1.84, -1.84, -1.7, -0.96, 0.0, 0.0, 0.98, 2.0, 2.95, 2.95, 2.95, 3.48, 4.19, 5.21, 6.13, 7.6, 9.21, 9.49, 10.68, 10.68, 10.89, 10.6, 10.7, 10.7, 10.73, 10.25, 10.45, 10.68, 11.09, 11.09, 11.09, 11.37, 11.18, 11.18, 10.93, 10.45, 10.02, 9.97, 9.97, 9.54, 8.82, 8.05, 7.41, 7.67, 8.0, 7.89, 7.63, 6.94, 6.2, 4.47, 2.97, -0.0, -0.89, -0.89, -0.89, -0.0, -0.0, -0.0, -0.0, -0.0, -0.0, -0.0, 0.83, 1.63, 2.35, 3.33, 3.47, 4.43, 4.81, 4.81, 9.21, 9.49, 9.49, 9.84, 9.84, 10.13, 9.84, 9.82, 9.8, 9.46, 7.9, 8.31, 7.69, 7.2, 7.74, 7.06, 5.81, 6.26, 6.26, 5.36, 6.26, 5.81, 5.81, 6.26, 6.51, 4.81, 0.0, -1.84, -2.8, -2.6, -1.7, -0.81, 0.0, 0.0, 1.83, 2.53, 2.76, 2.76, 2.76, 3.35, 4.43, 5.06, 6.28, 7.44, 8.67, 9.6, 9.9, 9.75, 9.54, 9.7, 9.8, 9.83, 9.7, 9.89, 10.27, 11.09, 11.09, 11.09, 11.37, 11.18, 10.93, 10.62, 10.6, 10.16, 9.7, 9.7, 9.54, 8.4, 8.06, 8.06, 8.06, 8.4, 8.3, 8.56, 8.33, 7.55, 6.26, 4.47, 2.97, -0.0, -0.89, -0.89, -0.89, -0.0, -0.0, -0.0, -0.0, -0.0, -0.0, -0.0, 0.83, 1.63, 2.35, 3.33, 3.47, 4.43, 4.81, 4.81, 9.21, 9.49, 9.49, 9.49, 9.84, 10.13, 9.84, 9.82, 9.5, 8.56, 7.6, 6.64, 7.02, 7.07, 6.94, 6.94, 6.65, 6.65, 6.2, 6.58, 5.59, 6.14, 5.64, 5.64, 6.14, 4.54, 0.88, -2.47, -2.47, -2.47, -1.72, -0.96, 0.0, 0.0, 1.83, 2.6, 2.4, 2.6, 2.6, 2.8, 4.16, 5.3, 6.64, 7.35, 8.03, 9.03, 8.55, 8.63, 8.9, 8.94, 9.24, 9.33, 9.6, 10.55, 10.4, 11.09, 11.37, 11.18, 11.36, 10.93, 10.62, 10.6, 10.14, 9.7, 9.7, 9.06, 8.4, 7.35, 8.03, 8.68, 9.03, 9.24, 9.06, 8.8, 8.45, 7.6, 5.81, 4.02, -0.0, -1.72, -1.63, -0.78, -1.72, -0.89, -0.72, -0.0, -0.0, -0.0, -0.0, -0.0, -0.0, 0.82, 1.84, 2.6, 3.63, 4.54, 4.19, 3.63, 8.83, 9.49, 9.49, 9.49, 9.49, 9.84, 9.84, 9.5, 9.19, 8.24, 7.6, 6.35, 7.35, 6.7, 6.82, 6.94, 7.21, 7.12, 6.7, 6.51, 6.02, 6.58, 6.23, 5.2, 5.2, 5.01, 0.88, -1.72, -2.47, -1.72, -1.63, -0.89, 0.0, 0.0, 1.41, 1.41, 2.8, 2.49, 2.51, 3.4, 4.71, 5.76, 6.53, 7.41, 7.44, 7.6, 7.89, 8.05, 8.45, 8.82, 9.2, 9.65, 10.23, 10.55, 10.55, 10.43, 10.75, 10.93, 11.06, 10.6, 10.6, 10.16, 9.7, 9.26, 8.63, 7.44, 6.95, 7.27, 7.94, 8.55, 9.6, 9.33, 9.24, 8.82, 8.49, 7.55, 4.38, -1.13, -1.84, -2.35, -2.2, -1.72, -1.72, -1.6, -0.82, -0.82, -0.89, -1.72, -0.89, -0.0, -0.0, 0.88, 1.7, 2.76, 3.35, 3.79, 3.35, 1.84, 8.83, 9.12, 9.22, 9.22, 9.5, 9.5, 9.5, 9.5, 8.87, 8.24, 6.98, 6.35, 6.24, 6.45, 6.44, 6.82, 6.64, 6.8, 6.8, 6.4, 6.52, 5.75, 5.6, 6.23, 5.21, 5.36, 1.32, -1.32, -1.4, -0.83, 0.0, 0.0, 0.0, 0.0, 1.23, 1.32, 2.49, 2.82, 3.45, 3.32, 4.34, 5.59, 6.11, 6.44, 7.12, 7.15, 7.55, 7.89, 8.05, 9.05, 9.65, 10.0, 10.15, 10.43, 10.43, 10.68, 10.89, 10.93, 11.06, 10.7, 10.25, 9.8, 9.36, 8.33, 6.79, 6.14, 6.31, 7.9, 8.38, 9.05, 9.6, 10.18, 9.15, 8.8, 8.49, 6.51, 2.68, -2.68, -4.81, -3.64, -2.88, -3.22, -2.6, -2.6, -2.6, -2.47, -2.47, -1.72, -1.84, -0.88, -0.0, -0.0, 0.88, 2.4, 2.76, 2.4, 1.6, 1.52, 8.85, 8.85, 8.85, 9.22, 9.5, 9.5, 9.21, 8.87, 8.87, 7.61, 6.7, 5.72, 6.24, 6.45, 6.82, 6.44, 6.44, 6.82, 6.44, 6.79, 6.11, 5.06, 5.06, 3.76, 3.76, 4.02, 1.32, 0.0, -1.18, 0.0, 0.0, 0.0, 0.89, 2.51, 2.47, 1.72, 0.82, 0.96, 0.89, 0.84, 1.84, 4.46, 4.85, 5.81, 6.51, 6.8, 7.44, 8.06, 9.05, 9.05, 9.03, 9.49, 9.49, 9.49, 10.25, 10.68, 10.93, 11.06, 11.15, 10.73, 10.28, 9.83, 8.46, 6.44, 4.83, 5.63, 7.08, 7.97, 8.03, 8.67, 9.9, 10.68, 9.97, 9.24, 7.6, 4.57, 1.34, -2.95, -4.84, -4.81, -4.11, -4.54, -4.19, -3.79, -4.11, -4.43, -3.22, -2.4, -1.83, -0.96, -0.88, -0.0, 0.82, 1.6, 2.29, 1.72, 1.52, 0.83, 8.85, 8.85, 8.85, 9.22, 9.5, 9.21, 8.86, 8.87, 8.24, 7.61, 6.34, 5.34, 6.24, 6.39, 7.76, 6.82, 7.42, 7.58, 7.44, 7.06, 7.06, 6.73, 5.37, 3.72, 3.76, 2.6, 1.3, 0.0, 0.0, 0.0, 0.0, 0.79, 2.4, 4.03, 3.79, 2.29, 0.0, -1.6, -1.55, -0.87, 1.79, 1.8, 2.98, 4.74, 6.28, 6.39, 8.03, 8.68, 9.05, 9.1, 9.2, 8.63, 9.36, 9.49, 10.25, 10.93, 11.15, 11.18, 11.18, 11.18, 10.28, 8.94, 6.7, 4.12, 4.13, 6.2, 7.9, 7.97, 8.67, 9.6, 10.68, 10.93, 10.62, 10.25, 8.05, 4.02, -0.0, -1.66, -2.95, -4.8, -5.2, -5.09, -5.09, -5.09, -5.2, -4.46, -4.19, -2.95, -2.53, -1.7, -1.47, -0.72, -0.0, 0.89, 1.72, 1.63, 1.63, 1.63, 8.85, 8.85, 8.85, 8.85, 9.5, 8.86, 8.87, 8.23, 7.96, 6.97, 5.7, 5.08, 6.18, 6.32, 8.0, 7.07, 7.67, 8.05, 7.67, 7.44, 8.05, 7.85, 8.55, 8.0, 6.4, 5.2, 4.02, 2.84, 3.72, 4.24, 2.8, 2.49, 2.8, 5.36, 4.84, 4.38, 1.58, -0.0, -0.0, -0.0, -0.0, 1.52, 2.8, 4.29, 5.37, 6.87, 8.06, 8.68, 8.68, 9.48, 8.05, 8.63, 9.49, 10.18, 10.45, 11.15, 11.62, 11.6, 11.36, 10.89, 9.24, 6.2, 3.2, 3.25, 4.8, 6.2, 8.22, 9.04, 9.6, 10.25, 11.36, 12.04, 11.62, 11.18, 8.9, 4.47, -0.0, -0.81, -0.88, -0.88, -2.98, -5.31, -5.36, -5.31, -5.31, -4.66, -4.22, -2.95, -1.99, -1.84, -1.41, -0.78, -0.0, -0.0, 0.83, 0.83, 1.63, 1.63, 8.46, 8.85, 8.85, 8.85, 8.86, 8.86, 8.87, 7.96, 7.6, 6.97, 5.69, 4.63, 5.92, 5.29, 6.48, 6.64, 6.95, 7.76, 7.41, 7.15, 7.44, 7.76, 8.72, 9.24, 8.63, 8.05, 5.81, 3.49, 4.46, 5.81, 5.2, 3.13, 1.9, 3.6, 4.57, 4.6, 2.98, 1.55, 1.7, 2.8, 4.02, 4.29, 5.06, 5.06, 6.9, 6.82, 8.0, 8.15, 7.97, 8.68, 9.48, 8.05, 8.95, 9.75, 10.6, 11.18, 11.62, 11.36, 10.68, 8.55, 5.73, 2.6, 2.35, 3.16, 4.68, 6.45, 8.93, 10.04, 10.15, 10.93, 11.62, 12.05, 12.86, 11.42, 9.4, 5.51, -0.0, -1.7, -0.0, 1.45, 1.7, -3.58, -3.58, -4.02, -3.95, -3.83, -2.79, -2.4, -1.6, -0.72, -0.78, -0.69, -0.74, -0.0, -0.0, 0.83, 0.83, 1.52, 8.2, 8.85, 8.85, 8.85, 8.86, 8.59, 8.23, 7.96, 7.6, 6.7, 5.67, 5.67, 5.7, 5.29, 5.29, 5.06, 5.9, 5.9, 5.72, 5.72, 5.72, 5.44, 6.01, 7.07, 6.79, 5.81, 4.84, 3.79, 4.66, 6.14, 4.47, -0.0, -0.0, 1.55, 2.98, 4.84, 4.11, 2.76, 3.0, 5.37, 5.06, 5.77, 6.44, 6.8, 6.94, 7.03, 6.79, 6.73, 7.35, 8.03, 8.06, 8.43, 8.05, 8.4, 8.3, 7.76, 7.85, 7.1, 5.21, 2.53, 0.96, 1.62, 2.16, 3.91, 4.87, 6.45, 8.53, 9.82, 10.38, 11.15, 11.52, 12.01, 11.8, 11.3, 8.8, 4.19, -1.0, -1.6, -0.0, 1.49, 3.6, 4.56, 1.9, 1.0, -0.0, -0.0, -1.35, -1.41, -0.78, -0.0, -0.0, -0.69, -0.83, -0.0, -0.0, 0.83, 0.83, 0.78, 8.2, 8.58, 8.58, 8.58, 8.86, 8.59, 8.23, 7.59, 6.96, 6.7, 6.31, 6.31, 6.97, 6.34, 6.98, 5.9, 5.9, 4.46, 4.47, 4.47, 5.64, 5.21, 4.68, 3.79, 4.02, 2.53, 2.84, 2.53, 3.82, 4.92, 4.66, 2.0, 0.98, 2.23, 3.6, 5.09, 5.01, 5.06, 4.58, 6.44, 6.79, 6.82, 7.35, 8.17, 7.63, 5.82, 5.06, 5.37, 6.11, 6.44, 6.73, 6.64, 6.04, 4.83, 3.32, 2.35, 2.54, -0.0, -2.8, -1.83, -0.0, 1.55, 3.23, 3.96, 5.6, 6.56, 7.9, 8.85, 9.05, 8.63, 8.45, 8.24, 8.55, 8.55, 7.02, 2.53, -1.0, -0.83, -0.0, 2.57, 3.8, 5.21, 5.3, 5.46, 4.46, 2.2, -0.0, -0.78, -0.69, -0.0, -0.0, -0.0, -0.0, -0.83, -0.0, -0.0, -0.0, 0.82, 8.2, 8.58, 8.58, 8.86, 8.86, 8.22, 8.23, 7.59, 7.22, 6.96, 6.31, 6.56, 6.96, 7.33, 7.86, 7.51, 6.44, 5.65, 5.32, 6.15, 6.15, 6.03, 4.4, 5.64, 4.24, 3.48, 3.16, 1.24, 2.8, 3.82, 4.66, 4.29, 3.93, 4.22, 5.09, 5.51, 5.43, 5.43, 5.77, 6.82, 7.03, 7.35, 7.63, 7.63, 6.13, 3.22, 3.45, 3.68, 3.68, 3.91, 4.26, 4.0, 3.25, 0.8, -0.0, 0.8, 1.69, 0.88, -0.99, -1.75, -0.0, 2.39, 4.1, 4.06, 4.75, 5.48, 6.52, 6.43, 5.76, 4.71, 3.16, 3.16, 3.55, 4.83, 4.26, 1.7, -0.0, 0.76, 2.11, 3.61, 4.6, 5.89, 6.39, 6.11, 5.43, 3.72, 0.76, -0.0, -0.0, -0.0, -0.0, -0.0, -0.0, -0.0, -0.0, -0.0, -0.0, -0.0, 8.2, 8.2, 8.86, 8.86, 8.22, 8.22, 8.23, 7.59, 7.6, 6.96, 6.96, 6.96, 6.96, 8.24, 8.53, 9.3, 9.35, 9.01, 8.51, 8.3, 8.72, 8.96, 8.87, 7.6, 6.16, 5.24, 3.87, 3.39, 2.49, 2.6, 3.95, 5.09, 4.8, 5.09, 5.51, 5.6, 5.09, 5.82, 5.82, 6.8, 7.21, 7.63, 7.21, 5.75, 3.79, 1.41, 1.23, 2.8, 2.8, 2.49, 2.2, 1.55, -0.0, -0.0, -0.0, 1.26, 3.52, 5.03, 3.48, -0.0, -0.0, 2.37, 3.91, 4.01, 3.91, 4.06, 4.55, 3.87, 3.91, 4.01, 3.91, 2.24, 0.88, 2.35, 2.4, 2.53, 2.6, 4.13, 5.0, 4.96, 5.59, 6.32, 6.7, 7.07, 6.18, 4.11, 0.88, -0.0, -0.0, -0.0, 0.72, 0.78, 0.78, 0.78, -0.0, -0.0, -0.0, -0.0, 8.22, 8.49, 8.49, 8.22, 8.22, 7.96, 8.23, 7.59, 7.6, 6.96, 6.96, 6.96, 7.33, 7.96, 8.87, 9.66, 10.3, 10.5, 10.91, 10.6, 10.66, 10.81, 11.04, 10.27, 9.39, 8.05, 6.68, 5.34, 4.44, 3.58, 3.58, 4.92, 6.14, 5.09, 5.51, 5.2, 4.84, 5.15, 5.82, 6.7, 7.42, 6.94, 5.81, 4.43, 2.8, 1.23, 1.7, 2.6, 2.98, 2.6, 2.6, 1.41, -0.0, -0.0, 1.3, 1.66, 3.22, 6.52, 7.6, 3.2, 0.82, 2.33, 4.54, 4.36, 3.11, 3.11, 2.31, 2.21, 4.36, 6.42, 6.53, 4.15, 0.96, 0.83, 1.72, 3.9, 5.76, 7.01, 8.01, 7.18, 6.95, 7.41, 7.67, 7.6, 6.44, 4.29, 1.72, 0.78, 0.69, 0.72, 0.72, 0.78, 1.36, 1.63, 1.52, 0.89, -0.0, -0.0, 8.22, 8.22, 8.22, 8.22, 8.22, 7.96, 7.59, 7.59, 7.6, 6.96, 6.96, 6.96, 7.33, 7.96, 8.87, 9.72, 10.51, 10.83, 11.31, 11.39, 11.39, 11.56, 11.4, 11.11, 10.27, 9.39, 8.05, 7.15, 6.26, 5.36, 4.47, 4.47, 6.26, 6.14, 5.81, 5.36, 5.06, 5.15, 7.2, 6.51, 6.65, 6.64, 5.01, 3.76, 2.32, 1.23, 1.23, 2.8, 2.6, 2.73, 2.73, 2.73, 2.73, 2.48, 2.73, 3.48, 4.66, 5.75, 8.63, 7.21, 3.32, 3.52, 4.96, 4.71, 4.71, 3.8, 2.54, 3.91, 5.37, 7.44, 6.44, 4.82, 0.88, 0.0, 2.24, 5.06, 8.05, 9.7, 9.89, 8.6, 8.03, 8.05, 7.28, 6.64, 5.09, 4.29, 2.51, 1.73, 1.45, 1.63, 1.72, 1.52, 1.52, 2.12, 2.35, 0.89, -0.0, -0.0, 8.22, 8.22, 8.22, 8.22, 7.96, 8.23, 7.59, 7.59, 7.6, 7.6, 7.33, 7.33, 7.6, 7.96, 8.58, 9.17, 10.01, 10.96, 11.36, 11.82, 11.62, 11.81, 11.71, 11.4, 11.11, 10.27, 8.94, 8.05, 7.6, 6.71, 6.26, 5.78, 5.36, 7.15, 6.14, 4.84, 5.15, 5.82, 6.64, 6.58, 4.98, 3.79, 3.76, 2.49, 3.0, 2.32, 1.23, 2.8, 3.76, 4.11, 4.11, 3.48, 3.79, 3.79, 4.46, 4.8, 5.64, 6.71, 8.17, 7.64, 5.59, 6.32, 5.69, 6.28, 5.36, 5.36, 4.19, 5.01, 5.72, 5.93, 5.21, 3.58, 1.2, 1.0, 4.2, 7.25, 9.6, 11.2, 10.9, 10.29, 9.04, 8.05, 6.82, 5.82, 4.43, 3.11, 2.51, 2.51, 1.73, 1.63, 1.63, 2.2, 2.12, 2.9, 2.72, 2.2, 1.41, 1.41, 8.22, 8.22, 8.22, 7.96, 8.23, 7.85, 7.59, 7.59, 7.33, 7.6, 7.6, 7.6, 7.96, 7.96, 8.87, 9.17, 9.72, 10.51, 10.96, 11.6, 11.82, 11.81, 11.56, 11.4, 11.11, 10.28, 9.83, 8.94, 8.49, 8.05, 7.58, 6.68, 6.16, 7.6, 5.29, 4.8, 4.54, 5.2, 5.2, 5.2, 3.79, 2.76, 4.02, 2.6, 4.02, 2.49, 2.49, 4.02, 4.74, 5.36, 5.36, 5.36, 5.36, 6.13, 6.13, 6.64, 7.5, 7.94, 8.17, 8.15, 7.21, 7.44, 7.2, 6.8, 7.21, 5.51, 5.64, 5.09, 4.84, 5.01, 6.14, 5.36, 4.8, 5.76, 7.63, 9.4, 11.2, 12.52, 11.9, 10.91, 9.3, 8.06, 6.44, 5.09, 4.58, 3.9, 2.64, 2.51, 2.51, 2.35, 2.2, 2.2, 2.12, 2.9, 3.2, 2.8, 2.04, 2.04, 7.57, 7.96, 7.96, 7.96, 8.23, 7.59, 7.59, 7.59, 7.59, 7.6, 7.6, 7.6, 7.96, 7.96, 8.56, 8.85, 9.46, 10.01, 10.96, 11.08, 11.62, 11.81, 11.56, 11.04, 10.73, 10.28, 9.82, 9.37, 8.86, 8.33, 7.87, 7.4, 6.79, 6.16, 4.92, 5.29, 4.0, 4.24, 4.24, 4.09, 3.48, 2.98, 2.73, 3.79, 3.76, 4.02, 4.29, 5.06, 6.13, 6.13, 6.13, 6.13, 6.13, 6.52, 6.52, 6.8, 7.2, 7.2, 7.07, 7.44, 8.15, 7.76, 7.81, 7.63, 7.5, 6.21, 5.81, 5.36, 5.36, 6.26, 8.49, 9.24, 9.65, 10.28, 10.24, 11.28, 12.23, 13.19, 12.47, 11.64, 9.67, 8.06, 6.39, 4.56, 4.42, 4.16, 3.2, 2.51, 2.35, 2.51, 2.35, 2.35, 2.12, 2.9, 3.55, 3.11, 2.29, 2.29, 7.57, 7.57, 7.96, 8.23, 7.85, 7.59, 7.59, 7.59, 7.59, 7.6, 7.6, 7.6, 7.96, 8.24, 8.24, 9.48, 8.85, 9.42, 9.86, 10.8, 11.62, 12.11, 10.91, 11.18, 9.97, 10.66, 7.4, 8.63, 8.3, 7.01, 7.01, 7.01, 6.51, 5.81, 5.24, 4.02, 3.13, 3.13, 4.47, 5.2, 4.22, 4.29, 4.46, 4.65, 5.36, 5.36, 5.72, 6.13, 6.64, 6.64, 6.64, 6.13, 6.13, 6.13, 5.93, 6.28, 7.2, 7.07, 7.44, 8.15, 8.22, 8.22, 8.17, 7.42, 7.11, 6.71, 6.71, 6.2, 6.65, 8.05, 10.22, 11.37, 12.79, 13.35, 13.07, 13.01, 12.74, 12.86, 12.3, 11.37, 8.05, 6.39, 5.37, 5.37, 4.95, 4.16, 4.16, 3.55, 3.33, 3.0, 3.0, 2.51, 2.51, 3.79, 4.42, 4.29, 2.6, 2.6, 7.57, 7.57, 7.85, 7.85, 7.59, 7.59, 7.59, 7.59, 7.59, 7.87, 7.6, 7.96, 7.96, 8.24, 8.56, 8.53, 8.53, 8.22, 8.93, 9.67, 11.2, 11.08, 10.55, 10.28, 9.65, 9.03, 8.0, 5.89, 5.6, 4.84, 5.21, 4.94, 4.94, 4.55, 4.11, 3.98, 3.58, 3.58, 4.02, 4.44, 4.77, 4.6, 4.6, 4.4, 4.4, 6.23, 6.23, 6.64, 6.64, 6.79, 6.64, 6.13, 5.72, 5.06, 5.15, 5.82, 7.44, 6.44, 7.07, 8.63, 8.17, 8.41, 7.97, 8.05, 6.71, 6.71, 6.71, 6.71, 7.15, 8.33, 9.9, 11.75, 13.49, 14.4, 14.73, 13.84, 12.87, 11.96, 9.8, 8.3, 7.07, 6.44, 5.77, 5.37, 4.65, 4.29, 4.29, 3.55, 3.11, 3.11, 2.64, 3.2, 3.2, 4.16, 4.29, 4.16, 2.8, 2.8, 7.57, 7.57, 7.85, 7.59, 7.59, 7.59, 7.59, 7.59, 7.59, 8.24, 7.96, 7.96, 7.96, 8.24, 8.87, 8.56, 8.53, 8.22, 7.3, 8.93, 10.29, 9.76, 9.3, 8.94, 9.01, 8.82, 8.0, 7.01, 5.08, 3.88, 2.86, 2.86, 2.86, 3.16, 3.6, 3.53, 3.58, 4.02, 4.47, 4.47, 4.44, 4.88, 4.77, 4.77, 4.19, 6.23, 6.23, 7.01, 7.06, 7.06, 6.23, 5.36, 5.06, 5.06, 5.37, 5.15, 6.44, 6.35, 8.15, 8.17, 7.97, 7.97, 8.05, 8.05, 7.15, 7.15, 6.71, 6.65, 6.8, 7.44, 8.42, 10.63, 12.37, 12.96, 12.74, 11.87, 9.6, 7.89, 6.65, 5.82, 6.11, 5.69, 5.69, 4.29, 4.42, 4.16, 4.16, 3.9, 3.9, 2.88, 2.47, 3.33, 4.16, 4.65, 5.06, 4.36, 2.88, 2.88, 6.92, 7.32, 7.59, 7.59, 7.59, 7.59, 7.59, 7.59, 7.87, 8.24, 7.96, 7.96, 8.24, 8.56, 8.87, 8.87, 8.85, 8.24, 8.24, 8.53, 9.37, 8.84, 8.08, 8.08, 8.65, 8.93, 8.8, 8.3, 7.69, 5.4, 3.72, 2.48, 2.6, 3.43, 3.82, 3.54, 4.02, 4.02, 4.47, 4.47, 4.92, 4.88, 4.88, 4.34, 4.34, 4.6, 7.01, 7.01, 7.06, 6.58, 5.36, 4.02, 4.29, 5.06, 5.06, 5.93, 5.77, 6.39, 7.76, 7.74, 7.11, 7.6, 7.6, 7.55, 7.55, 6.71, 6.2, 5.15, 4.83, 5.72, 6.01, 8.49, 8.67, 5.75, 3.63, 3.79, 3.22, 2.68, 2.53, 3.07, 4.29, 4.56, 4.83, 4.26, 4.26, 4.03, 4.16, 4.16, 3.9, 3.11, 3.11, 3.55, 4.65, 5.06, 5.06, 4.07, 2.47, 2.47, 6.92, 6.92, 7.59, 7.59, 7.59, 7.59, 7.59, 7.59, 7.6, 8.24, 8.24, 7.96, 8.24, 8.56, 8.56, 8.56, 8.85, 8.53, 8.53, 9.42, 9.94, 9.63, 8.43, 7.72, 7.44, 8.0, 8.43, 9.01, 8.79, 8.06, 6.79, 5.47, 4.65, 4.8, 4.34, 4.47, 4.47, 4.47, 4.92, 4.92, 4.92, 4.92, 4.89, 4.88, 4.34, 4.6, 6.58, 6.58, 6.58, 5.6, 5.36, 4.29, 5.06, 5.06, 5.06, 5.06, 4.74, 5.77, 7.07, 6.8, 6.65, 6.71, 6.65, 6.65, 6.26, 5.51, 4.29, 3.4, 4.26, 4.16, 4.02, 5.06, 2.21, -3.58, -3.6, -2.0, -1.58, -0.0, -0.0, 0.87, 1.41, 2.47, 3.2, 3.4, 4.26, 4.03, 4.16, 4.16, 4.16, 3.9, 3.11, 3.64, 4.74, 5.43, 5.09, 3.64, 2.29, 2.29, 6.92, 6.92, 7.19, 7.59, 7.59, 7.59, 7.59, 7.6, 7.6, 7.96, 7.96, 7.96, 8.54, 8.56, 8.56, 8.56, 8.85, 8.85, 8.85, 9.42, 9.94, 10.13, 9.88, 8.68, 7.9, 7.35, 7.9, 8.43, 8.8, 9.21, 8.79, 8.3, 7.51, 6.79, 6.16, 5.34, 4.92, 4.92, 4.92, 5.36, 5.36, 4.92, 4.89, 4.89, 4.77, 4.34, 6.58, 7.01, 6.64, 6.13, 6.52, 6.13, 5.72, 5.72, 5.72, 5.36, 4.54, 5.21, 6.52, 7.2, 5.75, 5.75, 5.29, 5.29, 4.6, 3.33, 3.27, 3.52, 4.03, 4.29, 4.6, 8.05, 8.49, 6.2, 5.2, 3.48, 1.55, -0.0, -0.0, -0.76, -0.0, -0.0, 1.47, 2.2, 3.33, 3.33, 3.33, 3.33, 3.9, 4.65, 4.29, 4.43, 5.09, 5.09, 4.43, 3.11, 2.29, 2.29, 6.92, 6.92, 7.19, 7.19, 7.59, 7.59, 7.6, 7.6, 7.6, 7.96, 7.96, 7.96, 8.87, 8.56, 8.56, 8.85, 8.85, 8.85, 9.13, 9.42, 9.94, 9.86, 9.76, 9.88, 9.2, 8.15, 7.9, 7.9, 8.43, 9.2, 9.42, 9.21, 8.96, 8.21, 7.4, 6.68, 5.78, 5.34, 5.34, 5.34, 5.36, 5.36, 5.36, 4.89, 4.89, 4.89, 5.78, 6.16, 6.94, 6.94, 6.36, 7.63, 6.64, 6.23, 5.36, 5.36, 5.01, 4.22, 5.2, 6.13, 6.52, 6.16, 5.6, 5.21, 4.29, 3.4, 3.15, 4.12, 3.91, 5.2, 5.81, 8.01, 11.18, 11.51, 11.18, 9.75, 5.6, 0.99, -1.8, -1.98, -1.6, -0.87, -0.0, 0.81, 1.7, 2.6, 2.8, 3.47, 4.29, 4.36, 5.77, 5.09, 4.43, 5.15, 4.01, 3.22, 2.11, 2.11, 6.94, 6.94, 6.94, 6.94, 7.33, 7.33, 7.33, 7.6, 7.6, 7.6, 7.96, 7.96, 8.87, 8.56, 8.56, 8.85, 8.85, 8.85, 8.85, 9.08, 9.08, 9.59, 9.86, 10.02, 9.88, 8.96, 8.68, 8.15, 8.27, 8.68, 8.8, 9.01, 9.21, 8.48, 7.74, 7.06, 6.16, 5.7, 5.78, 5.78, 5.34, 5.36, 5.36, 5.33, 5.34, 5.78, 5.79, 6.68, 7.13, 7.13, 7.13, 6.23, 7.5, 6.23, 6.23, 5.36, 5.6, 5.2, 5.2, 5.2, 6.52, 7.6, 6.21, 5.15, 3.72, 2.4, 3.15, 4.12, 4.58, 4.84, 5.81, 8.05, 9.39, 11.52, 11.66, 10.68, 6.55, -0.0, -1.9, -2.6, -2.98, -1.74, -0.87, -0.0, -0.0, 1.7, 2.6, 2.6, 3.47, 4.43, 5.06, 5.06, 4.74, 4.43, 3.72, 3.35, 2.4, 2.4, 6.53, 6.53, 6.94, 6.94, 6.94, 7.33, 7.33, 7.6, 7.6, 7.6, 7.96, 7.96, 8.24, 8.56, 8.56, 8.85, 8.85, 8.53, 8.53, 9.08, 9.08, 9.37, 9.66, 9.76, 10.02, 9.88, 9.48, 9.2, 8.68, 8.68, 8.68, 8.91, 8.51, 8.3, 8.0, 7.51, 6.79, 6.51, 6.04, 6.16, 5.78, 5.78, 5.81, 5.36, 5.78, 6.23, 6.23, 6.71, 6.71, 7.15, 6.71, 6.26, 5.81, 5.36, 5.75, 5.51, 6.58, 6.07, 4.22, 4.6, 6.23, 7.21, 8.17, 5.58, 3.91, 2.67, 3.27, 5.06, 5.58, 6.02, 6.26, 7.15, 8.49, 9.83, 10.45, 9.75, 6.2, 0.0, -3.58, -3.58, -3.47, -3.2, -2.41, -1.49, -0.0, 0.73, 1.7, 2.4, 3.63, 4.01, 4.74, 5.06, 5.06, 4.01, 3.43, 3.07, 2.2, 2.2, 6.53, 6.53, 6.94, 6.94, 6.94, 7.33, 7.6, 7.6, 7.6, 7.6, 7.96, 7.96, 8.24, 8.56, 8.56, 8.85, 8.85, 8.53, 8.82, 8.82, 9.08, 9.37, 9.02, 9.3, 9.76, 10.02, 9.63, 9.63, 9.88, 9.71, 9.2, 8.8, 8.91, 8.51, 8.22, 7.51, 7.09, 6.79, 6.51, 6.6, 6.16, 5.78, 5.81, 5.81, 6.23, 6.23, 6.71, 6.71, 6.71, 6.71, 6.71, 6.23, 5.34, 4.89, 4.47, 5.36, 6.14, 6.07, 4.6, 4.6, 5.51, 7.11, 7.55, 6.21, 4.42, 4.44, 4.95, 5.46, 6.02, 6.26, 7.15, 7.55, 8.33, 8.45, 8.94, 9.36, 7.6, 1.9, -3.6, -4.38, -5.36, -4.6, -3.88, -3.16, -1.49, -0.0, 0.73, 2.76, 3.35, 4.11, 4.43, 5.15, 5.43, 4.43, 3.79, 3.07, 2.2, 2.2, 6.53, 6.53, 6.94, 6.94, 6.94, 6.94, 7.6, 7.6, 7.6, 7.6, 7.96, 7.96, 8.24, 8.56, 8.56, 8.85, 8.85, 8.53, 8.82, 8.82, 8.82, 8.78, 9.02, 9.3, 9.3, 9.3, 9.58, 9.63, 9.63, 9.48, 9.6, 9.2, 8.8, 8.51, 8.0, 7.81, 7.51, 7.09, 6.79, 6.94, 6.6, 6.23, 5.78, 6.71, 6.65, 6.16, 6.68, 6.71, 6.23, 6.68, 6.23, 5.34, 4.88, 3.98, 3.58, 4.02, 6.26, 6.14, 4.6, 4.6, 5.51, 6.71, 7.1, 5.95, 4.83, 5.24, 5.69, 5.82, 6.2, 6.2, 6.94, 7.89, 8.33, 8.56, 9.06, 9.54, 9.36, 7.55, 4.15, -1.2, -4.92, -5.31, -5.08, -3.78, -2.41, -0.87, -0.0, 2.0, 3.48, 4.19, 4.84, 5.21, 5.43, 4.46, 3.79, 2.53, 1.55, 1.55, 6.53, 6.53, 6.53, 6.94, 6.94, 6.94, 7.6, 7.6, 7.6, 7.6, 7.6, 7.96, 8.24, 8.56, 8.56, 8.85, 8.53, 8.53, 8.82, 8.5, 8.5, 8.78, 8.78, 8.78, 9.3, 9.3, 9.21, 9.21, 9.48, 9.88, 9.48, 9.6, 9.2, 8.91, 8.51, 8.22, 7.81, 7.51, 7.26, 6.94, 6.94, 6.6, 6.23, 5.81, 5.36, 7.11, 7.55, 5.81, 5.36, 4.92, 4.47, 4.44, 4.02, 4.02, 4.02, 4.47, 4.92, 4.89, 5.59, 5.51, 5.75, 6.71, 6.51, 5.46, 5.37, 5.06, 5.06, 5.93, 5.09, 5.29, 5.75, 6.94, 8.05, 8.9, 9.54, 9.75, 10.02, 10.25, 10.28, 8.45, 3.95, -1.27, -4.11, -4.0, -2.84, -1.4, -0.0, 1.74, 3.22, 4.4, 5.16, 5.59, 5.16, 5.2, 3.84, 2.3, 1.55, 1.55, 6.29, 6.29, 6.29, 6.94, 6.94, 6.94, 7.22, 7.6, 7.6, 7.6, 7.6, 7.6, 8.24, 8.24, 8.56, 8.85, 8.53, 8.53, 8.82, 8.5, 8.5, 8.78, 8.78, 8.45, 8.73, 8.94, 9.21, 9.21, 9.1, 9.1, 9.48, 9.35, 9.2, 8.68, 8.51, 8.0, 8.22, 8.0, 7.51, 7.26, 7.4, 6.94, 6.6, 5.79, 5.78, 7.15, 8.05, 6.68, 5.78, 5.7, 5.7, 6.14, 6.16, 4.8, 5.33, 5.33, 5.33, 5.33, 4.89, 5.75, 6.26, 6.65, 6.7, 6.21, 6.21, 5.75, 4.6, 4.11, 4.84, 4.92, 4.47, 5.29, 7.12, 9.54, 10.7, 10.16, 9.97, 9.97, 9.81, 9.81, 9.18, 6.7, 0.57, -2.53, -3.07, -1.86, -0.63, 1.26, 3.47, 4.41, 5.31, 5.36, 4.92, 4.41, 3.16, 1.66, 0.81, 0.81, 6.29, 6.29, 6.29, 6.7, 6.7, 6.96, 7.22, 7.6, 7.6, 7.6, 7.6, 7.6, 8.24, 8.24, 8.24, 8.53, 8.53, 8.53, 8.5, 8.5, 8.78, 8.45, 8.45, 8.45, 8.73, 8.73, 8.73, 8.65, 9.67, 8.55, 9.1, 9.1, 8.96, 8.68, 8.28, 8.4, 8.0, 7.81, 8.0, 7.69, 7.26, 6.97, 7.06, 6.6, 6.16, 6.61, 7.13, 7.6, 7.13, 7.06, 7.06, 7.06, 7.06, 7.06, 6.68, 6.23, 5.78, 5.36, 5.36, 5.36, 6.26, 6.65, 6.7, 6.55, 6.51, 6.2, 5.36, 4.92, 5.36, 5.7, 5.09, 4.84, 6.13, 9.21, 11.84, 11.62, 9.26, 8.45, 8.05, 8.48, 9.05, 9.45, 7.2, 0.71, -2.17, -1.79, -0.45, 0.89, 3.13, 4.47, 4.92, 4.92, 4.92, 3.51, 2.41, 0.73, 0.81, 0.81, 6.29, 6.29, 6.29, 6.96, 6.96, 6.96, 6.96, 6.96, 7.33, 7.33, 7.33, 7.61, 7.61, 7.95, 7.95, 8.24, 8.53, 8.22, 8.22, 8.22, 8.52, 8.45, 8.45, 8.45, 8.73, 8.73, 8.73, 8.73, 8.65, 9.67, 8.0, 8.55, 8.82, 8.43, 8.68, 8.15, 8.0, 8.22, 7.81, 7.51, 7.69, 7.26, 6.94, 6.94, 6.61, 7.06, 7.07, 7.6, 7.6, 7.6, 7.15, 7.13, 7.13, 7.13, 6.71, 6.71, 6.26, 5.81, 5.36, 5.36, 5.36, 6.2, 7.5, 6.2, 6.21, 6.26, 5.81, 5.36, 6.26, 6.71, 6.28, 5.82, 6.02, 8.49, 12.52, 12.96, 10.28, 8.46, 8.48, 9.6, 10.6, 10.8, 10.05, 5.16, 0.45, -1.86, -0.8, 0.57, 3.13, 4.47, 4.92, 4.87, 4.41, 3.04, 0.7, -0.0, -0.0, -0.0, 6.29, 6.29, 6.56, 6.56, 6.96, 6.96, 6.96, 6.96, 7.33, 7.33, 7.61, 7.61, 7.61, 7.95, 8.24, 8.24, 8.24, 8.22, 8.22, 8.22, 8.19, 8.19, 8.45, 8.45, 8.73, 8.73, 8.73, 8.73, 8.73, 8.93, 8.0, 8.27, 8.27, 7.9, 7.9, 8.15, 7.76, 8.0, 7.71, 7.31, 7.51, 7.26, 7.21, 6.94, 6.94, 7.06, 7.07, 7.58, 7.58, 7.6, 7.15, 7.15, 7.15, 7.15, 6.71, 6.71, 6.26, 6.26, 5.81, 5.36, 6.71, 6.71, 6.71, 6.58, 5.75, 5.81, 5.81, 5.36, 5.81, 6.71, 6.51, 7.21, 7.6, 8.8, 12.41, 13.86, 12.86, 11.18, 11.03, 11.75, 12.43, 12.05, 11.18, 8.05, 2.0, -1.9, -0.54, 0.71, 3.04, 4.47, 4.92, 5.36, 4.02, 1.9, -0.0, -0.0, -0.0, -0.0, 6.56, 6.56, 6.56, 6.56, 6.96, 6.96, 6.96, 6.96, 6.96, 7.61, 7.61, 7.61, 7.61, 7.61, 7.93, 7.93, 7.93, 8.22, 8.22, 8.22, 8.19, 8.19, 8.19, 8.45, 8.73, 8.73, 8.73, 8.73, 8.73, 8.65, 8.55, 8.43, 7.9, 7.9, 7.72, 7.35, 7.61, 7.61, 7.48, 7.31, 7.31, 7.09, 7.21, 7.4, 7.4, 7.4, 7.51, 7.51, 7.58, 7.58, 7.13, 7.13, 7.15, 7.15, 6.71, 6.71, 6.26, 6.26, 5.81, 5.36, 4.92, 6.71, 6.71, 6.58, 6.58, 6.71, 5.81, 5.81, 6.26, 6.26, 6.21, 7.06, 8.49, 10.25, 11.6, 12.96, 13.21, 13.05, 13.05, 13.32, 12.52, 12.05, 11.09, 8.46, 3.13, -0.6, 0.0, 2.0, 3.13, 4.47, 4.92, 4.47, 4.02, 1.49, -0.0, -0.0, -0.0, -0.0, 6.56, 6.56, 6.56, 6.56, 6.56, 6.96, 6.96, 6.96, 7.24, 7.61, 7.61, 7.61, 7.61, 7.61, 7.61, 7.93, 8.22, 8.22, 8.22, 7.9, 8.19, 8.19, 8.19, 8.45, 8.73, 8.73, 8.73, 9.01, 8.65, 8.65, 8.93, 8.82, 8.43, 8.15, 7.76, 7.61, 7.61, 7.23, 7.48, 7.08, 7.2, 7.01, 7.21, 7.4, 7.4, 7.4, 7.4, 7.51, 7.51, 7.51, 7.51, 7.13, 7.13, 7.13, 6.68, 6.68, 6.23, 6.23, 5.78, 5.33, 5.33, 4.92, 7.15, 6.26, 6.65, 7.5, 6.2, 6.65, 6.71, 6.26, 6.71, 6.26, 8.94, 10.7, 11.62, 11.62, 12.04, 12.86, 13.32, 13.41, 12.5, 10.98, 9.4, 6.11, 2.54, 1.26, 1.79, 2.54, 4.02, 4.92, 4.92, 4.47, 3.47, 1.74, -0.0, -0.0, -0.0, -0.0, 6.31, 6.31, 6.31, 6.31, 6.31, 6.7, 6.7, 6.97, 6.97, 6.97, 7.33, 7.33, 7.61, 7.61, 7.61, 7.61, 8.22, 8.22, 8.22, 7.9, 8.19, 8.19, 8.19, 8.19, 8.45, 8.73, 8.73, 8.65, 8.65, 8.65, 8.93, 8.55, 8.82, 8.68, 8.15, 7.76, 7.61, 7.48, 7.48, 7.31, 7.31, 7.01, 7.21, 8.33, 6.94, 7.4, 7.4, 7.4, 7.4, 7.4, 7.51, 7.07, 7.06, 7.06, 6.61, 6.6, 6.16, 6.16, 5.7, 5.33, 5.33, 4.8, 6.71, 5.81, 6.71, 7.6, 6.26, 6.71, 6.71, 6.26, 6.26, 6.26, 7.97, 10.96, 11.96, 11.18, 10.25, 11.15, 12.49, 12.88, 11.99, 9.58, 6.0, 2.24, -0.0, 0.99, 1.74, 2.54, 4.02, 4.92, 4.47, 4.02, 2.6, 1.98, 1.13, -0.0, -0.0, -0.0, 6.31, 6.31, 6.31, 6.31, 6.31, 6.58, 6.97, 6.97, 6.97, 6.97, 7.33, 7.61, 7.61, 7.61, 7.61, 7.61, 8.22, 7.9, 7.9, 8.19, 8.19, 8.19, 8.19, 8.19, 8.45, 8.73, 8.73, 8.38, 8.65, 8.65, 8.93, 8.55, 8.55, 8.82, 8.68, 8.28, 8.0, 8.0, 7.48, 7.71, 7.31, 7.51, 7.21, 8.33, 7.51, 7.87, 7.74, 7.69, 7.26, 7.4, 6.94, 6.94, 6.94, 6.94, 6.51, 6.6, 6.16, 6.14, 5.26, 5.24, 5.24, 4.77, 6.58, 5.75, 6.21, 7.6, 7.15, 6.26, 6.21, 6.21, 5.81, 5.81, 7.15, 9.54, 12.58, 11.84, 9.83, 10.6, 11.28, 11.71, 10.49, 7.28, 3.58, 0.76, 0.87, 0.76, 1.49, 2.97, 4.02, 4.47, 4.47, 3.47, 2.6, 1.98, 1.98, 0.99, 1.2, -0.0, 6.31, 6.31, 6.31, 6.31, 6.58, 6.58, 6.97, 6.97, 6.97, 6.97, 7.26, 7.61, 7.61, 7.61, 7.61, 7.32, 7.6, 7.9, 7.9, 8.19, 8.19, 8.19, 8.19, 8.19, 8.49, 8.73, 8.38, 8.38, 8.65, 8.65, 8.93, 8.55, 8.55, 8.82, 8.43, 8.68, 8.51, 8.4, 8.0, 7.81, 7.81, 7.51, 7.51, 7.21, 8.8, 7.87, 7.74, 7.26, 6.79, 6.79, 6.79, 6.94, 6.51, 6.47, 6.47, 6.04, 5.99, 5.7, 5.24, 5.24, 5.24, 4.77, 4.77, 6.58, 6.58, 7.06, 6.21, 6.65, 6.21, 6.26, 5.81, 5.36, 6.26, 7.94, 10.6, 11.2, 9.9, 8.49, 8.01, 7.45, 6.66, 5.31, 4.75, 4.65, 4.43, 3.16, 2.21, 2.6, 3.9, 4.38, 4.38, 3.2, 2.21, 1.98, 1.98, 1.74, 1.9, 1.2, 6.31, 6.31, 6.31, 6.58, 6.58, 6.58, 6.58, 6.97, 6.97, 6.98, 6.98, 6.98, 7.61, 7.32, 7.32, 7.6, 7.6, 7.6, 7.9, 8.19, 8.19, 8.19, 8.19, 8.49, 8.15, 8.15, 8.38, 8.38, 8.65, 8.65, 8.65, 8.55, 8.55, 8.82, 8.43, 8.68, 8.68, 8.51, 8.51, 8.22, 8.22, 7.81, 7.51, 7.51, 8.0, 9.54, 7.74, 6.79, 6.51, 6.51, 6.51, 6.51, 6.47, 6.47, 6.04, 6.04, 5.99, 5.7, 5.24, 5.24, 5.24, 4.6, 6.23, 6.58, 7.01, 7.06, 6.65, 7.5, 6.2, 6.26, 6.26, 5.81, 6.71, 6.71, 7.5, 9.1, 9.67, 8.55, 6.7, 5.2, 5.43, 6.35, 7.33, 7.95, 7.54, 6.07, 4.22, 2.98, 3.6, 4.15, 4.15, 3.6, 2.53, 1.98, 1.98, 2.98, 2.21, 2.21, 6.33, 6.33, 6.33, 6.33, 6.33, 6.33, 6.33, 6.71, 6.98, 6.98, 6.98, 6.98, 7.32, 7.32, 7.32, 7.6, 7.6, 7.6, 7.9, 8.19, 8.19, 8.19, 8.19, 8.15, 8.15, 8.15, 8.15, 8.38, 8.65, 8.65, 8.65, 8.55, 8.55, 8.82, 8.43, 8.43, 8.68, 8.28, 8.51, 8.51, 8.22, 8.22, 7.81, 7.81, 8.22, 8.48, 8.21, 7.87, 6.97, 7.06, 7.06, 7.06, 6.61, 6.61, 6.6, 6.16, 5.7, 5.7, 5.7, 5.24, 5.09, 5.09, 5.09, 7.06, 7.06, 7.06, 7.15, 7.06, 5.75, 6.26, 6.26, 6.26, 7.01, 6.02, 6.58, 7.6, 9.33, 10.55, 9.6, 8.06, 7.95, 8.55, 9.14, 9.05, 9.34, 8.82, 5.75, 3.6, 3.2, 4.15, 4.15, 2.98, 1.74, 1.74, 2.98, 2.21, 2.21, 2.21, 6.33, 6.33, 6.33, 6.33, 6.33, 6.33, 6.33, 6.61, 6.98, 6.98, 6.98, 6.98, 7.32, 7.32, 7.6, 7.6, 7.6, 7.6, 7.6, 8.19, 8.19, 8.19, 7.86, 8.15, 8.15, 8.15, 8.15, 8.38, 8.65, 8.65, 8.29, 8.55, 8.55, 8.82, 8.43, 8.43, 8.68, 8.68, 8.51, 8.51, 8.51, 8.22, 8.22, 8.22, 8.22, 8.48, 8.64, 8.33, 7.87, 7.87, 7.51, 7.51, 7.51, 7.06, 7.06, 6.61, 6.16, 6.16, 5.7, 5.7, 5.57, 5.51, 5.51, 7.06, 7.06, 7.15, 7.15, 6.71, 5.81, 6.26, 6.71, 6.65, 6.94, 6.7, 7.12, 7.21, 8.94, 10.93, 11.62, 10.8, 10.23, 10.0, 9.86, 9.68, 9.89, 9.15, 6.98, 3.95, 2.97, 3.9, 3.47, 1.9, 1.9, 2.98, 2.6, 1.74, 1.74, 1.74, 6.33, 6.33, 6.33, 6.33, 6.33, 6.33, 6.33, 6.61, 6.98, 6.98, 6.98, 6.98, 6.98, 7.32, 7.6, 7.6, 7.6, 7.6, 7.6, 7.86, 7.86, 7.86, 7.86, 8.15, 8.15, 8.15, 8.15, 8.44, 8.44, 8.29, 8.29, 8.55, 8.55, 8.18, 8.43, 8.43, 8.68, 8.68, 8.28, 8.51, 8.51, 8.51, 8.22, 8.22, 8.22, 8.3, 8.48, 8.21, 8.17, 8.3, 7.87, 7.87, 7.84, 7.51, 7.07, 6.61, 6.6, 6.16, 6.04, 5.99, 5.57, 5.57, 5.81, 5.57, 7.5, 7.15, 7.15, 6.21, 6.21, 6.26, 7.15, 6.51, 6.7, 6.94, 7.35, 7.63, 8.9, 10.25, 11.18, 11.09, 11.2, 11.06, 11.03, 10.37, 10.18, 9.36, 6.71, 3.58, 2.68, 3.13, 3.2, 0.8, 1.9, 2.6, 2.21, 1.98, 1.98, 1.98, 6.33, 6.33, 6.33, 6.33, 6.33, 6.33, 6.61, 6.61, 6.98, 6.98, 6.98, 6.98, 6.98, 7.32, 7.6, 7.6, 7.6, 7.6, 7.3, 7.59, 7.86, 7.86, 8.15, 8.15, 8.15, 8.15, 8.15, 8.44, 8.44, 8.29, 8.29, 8.37, 8.37, 8.0, 8.43, 8.43, 8.68, 8.68, 8.28, 8.51, 8.51, 8.51, 8.51, 8.3, 8.22, 8.22, 8.22, 8.0, 8.0, 8.17, 7.74, 7.74, 7.74, 7.4, 7.4, 6.94, 6.51, 6.47, 6.47, 6.04, 5.99, 5.99, 5.81, 5.81, 6.14, 7.6, 7.6, 6.26, 6.71, 6.71, 7.1, 6.94, 7.12, 7.21, 7.63, 7.89, 8.9, 9.83, 10.6, 10.25, 11.09, 12.04, 12.09, 10.52, 10.26, 8.49, 5.31, 2.24, 2.24, 3.58, 2.21, 1.0, 1.9, 2.21, 1.98, 0.87, 0.87, 0.87, 6.08, 6.08, 6.08, 6.08, 6.34, 6.61, 6.61, 6.61, 6.61, 6.98, 6.98, 6.98, 6.98, 6.98, 7.6, 7.6, 7.6, 7.3, 7.59, 7.59, 7.86, 7.86, 8.15, 8.15, 8.15, 8.15, 8.15, 8.44, 8.65, 8.29, 8.08, 8.37, 8.37, 8.0, 8.27, 8.27, 8.27, 8.28, 8.28, 8.28, 8.51, 8.51, 8.51, 8.1, 8.22, 8.22, 8.22, 8.0, 8.0, 8.0, 7.58, 7.74, 7.69, 7.26, 7.21, 6.79, 6.79, 6.3, 6.3, 6.3, 5.81, 5.81, 5.81, 5.81, 5.57, 7.5, 7.15, 7.5, 7.5, 6.51, 6.94, 6.94, 7.37, 7.42, 7.85, 8.01, 8.9, 9.83, 9.8, 9.54, 10.68, 11.87, 11.87, 10.37, 8.91, 5.77, 2.0, 0.89, 1.79, 1.58, 1.0, 1.2, 1.2, 1.74, 1.6, 0.87, 0.87, 0.87, 6.34, 6.34, 6.34, 6.34, 6.34, 6.34, 6.34, 6.34, 6.34, 6.7, 6.7, 6.98, 6.98, 6.98, 7.6, 7.6, 7.3, 7.3, 7.3, 7.59, 7.59, 7.86, 8.15, 8.15, 8.15, 8.15, 8.15, 8.44, 8.65, 8.29, 8.29, 8.37, 8.37, 8.0, 8.27, 8.27, 8.27, 8.15, 8.15, 8.28, 8.51, 8.51, 8.51, 8.0, 8.22, 8.22, 8.22, 7.81, 8.0, 8.0, 7.51, 7.51, 7.51, 7.26, 7.21, 6.79, 6.79, 6.79, 6.3, 6.3, 6.3, 5.81, 5.81, 5.81, 5.31, 7.21, 7.5, 7.5, 7.5, 6.65, 6.98, 6.94, 7.42, 7.85, 7.89, 8.01, 8.45, 8.94, 8.9, 8.8, 9.54, 10.75, 11.09, 8.8, 5.31, 0.0, -1.34, 0.89, 2.0, 1.6, 1.26, 1.0, 0.85, 1.74, 0.87, -0.0, -0.0, -0.0, 6.34, 6.34, 6.34, 6.34, 6.34, 6.34, 6.34, 6.34, 6.34, 6.34, 6.7, 6.7, 6.7, 7.27, 7.27, 7.3, 7.3, 7.3, 7.3, 7.59, 7.59, 7.86, 8.15, 8.15, 8.15, 8.15, 8.15, 8.44, 8.44, 8.29, 8.29, 8.37, 8.37, 8.0, 8.27, 8.27, 8.27, 7.9, 8.15, 8.15, 8.15, 8.4, 8.4, 8.0, 8.0, 8.22, 8.22, 7.81, 7.81, 8.0, 7.51, 7.51, 7.51, 7.09, 7.21, 7.21, 6.79, 6.6, 6.51, 6.51, 6.1, 6.0, 5.6, 5.6, 5.08, 6.16, 6.51, 7.1, 7.11, 7.55, 7.55, 7.89, 7.42, 7.85, 7.89, 7.89, 8.01, 8.05, 8.05, 8.33, 8.8, 9.06, 9.03, 6.79, 1.2, -2.68, -0.0, 1.26, 2.0, 2.0, 0.8, 1.0, 0.99, 1.13, -0.0, -0.0, -0.0, -0.0, 6.34, 6.34, 6.34, 6.34, 6.34, 6.34, 6.34, 6.34, 6.34, 6.34, 6.34, 6.7, 6.98, 6.98, 6.98, 6.98, 7.3, 7.3, 7.59, 7.59, 7.59, 7.88, 8.15, 8.15, 8.15, 8.15, 8.44, 8.44, 8.44, 8.08, 8.08, 8.37, 8.37, 8.0, 8.0, 8.27, 8.27, 7.9, 8.15, 8.15, 8.15, 8.4, 8.4, 8.0, 8.0, 8.22, 8.22, 7.81, 7.81, 7.71, 7.51, 7.51, 7.51, 7.09, 7.01, 7.01, 7.01, 6.6, 6.6, 6.51, 6.51, 6.1, 6.0, 6.0, 5.21, 6.21, 6.7, 6.94, 7.1, 7.55, 7.42, 7.89, 8.14, 8.14, 7.71, 7.85, 7.55, 7.6, 7.6, 7.55, 7.89, 7.71, 7.76, 6.18, 0.99, -2.54, -1.26, -0.0, 1.0, 1.49, 0.85, 0.85, 0.76, -0.0, -0.82, -1.55, -1.55, -1.55, 6.34, 5.95, 6.34, 6.34, 6.34, 6.34, 6.34, 6.34, 6.34, 6.34, 6.34, 6.34, 6.98, 6.98, 6.98, 6.98, 7.3, 7.3, 7.59, 7.59, 7.59, 7.27, 7.55, 8.15, 8.15, 8.15, 8.44, 8.44, 8.08, 8.08, 8.08, 8.37, 8.37, 8.0, 8.0, 8.27, 8.27, 7.9, 8.15, 8.15, 8.15, 8.15, 8.4, 8.0, 8.0, 8.0, 8.22, 7.81, 7.81, 7.71, 7.51, 7.51, 7.51, 7.09, 7.01, 7.01, 7.01, 7.01, 6.6, 6.6, 6.51, 6.51, 6.28, 5.75, 5.75, 5.75, 6.4, 6.7, 6.7, 6.94, 6.94, 6.94, 7.63, 7.03, 8.14, 7.63, 7.42, 7.11, 7.15, 7.15, 7.55, 7.42, 7.42, 6.16, -2.6, -2.6, -1.2, -0.0, -0.0, 0.85, 0.99, -0.0, -0.0, -1.6, -2.4, -2.44, -2.44, -2.44, 5.7, 5.7, 5.7, 6.34, 6.34, 6.34, 6.34, 6.34, 6.34, 6.34, 6.34, 6.34, 6.63, 6.98, 6.98, 6.98, 7.3, 7.59, 7.59, 7.59, 7.27, 7.27, 7.55, 7.55, 7.81, 7.81, 8.08, 8.08, 8.08, 8.08, 8.08, 8.37, 8.37, 8.0, 8.0, 8.27, 8.27, 7.9, 7.9, 8.15, 8.15, 8.15, 8.4, 8.0, 8.0, 8.0, 8.22, 7.81, 7.81, 7.71, 7.71, 7.51, 7.51, 7.51, 7.01, 7.01, 7.01, 7.01, 7.01, 7.01, 6.28, 6.28, 6.28, 6.28, 5.86, 5.86, 6.44, 6.44, 6.8, 6.7, 6.16, 6.7, 6.4, 6.8, 7.42, 7.35, 7.21, 7.1, 7.15, 7.15, 7.15, 7.1, 7.1, -0.0, -3.22, -2.84, -1.74, -1.2, -1.0, -0.0, -0.0, -0.73, -2.47, -3.27, -3.32, -3.06, -3.06, -3.06, 5.7, 5.7, 5.7, 5.7, 6.08, 6.34, 6.34, 6.34, 6.34, 6.34, 6.34, 6.63, 6.63, 6.98, 6.98, 6.98, 6.98, 7.59, 7.59, 7.59, 7.27, 7.27, 7.55, 7.55, 7.55, 7.81, 8.08, 8.08, 8.08, 8.08, 8.08, 8.37, 8.37, 8.0, 8.0, 8.27, 8.27, 7.9, 7.9, 8.15, 8.15, 8.15, 8.4, 8.0, 8.0, 8.0, 8.22, 7.81, 7.81, 7.71, 7.71, 7.31, 7.51, 7.51, 7.43, 7.01, 6.8, 6.8, 6.8, 6.8, 6.8, 6.28, 6.28, 6.03, 6.41, 6.15, 6.15, 6.41, 7.35, 7.12, 7.21, 7.21, 7.12, 6.51, 6.02, 6.18, 6.7, 6.51, 7.1, 7.1, 6.71, 6.71, 4.38, -1.58, -4.66, -3.58, -2.53, -2.21, -1.98, -1.8, -2.4, -3.79, -4.12, -4.0, -4.0, -3.06, -3.06, -3.06, 5.7, 5.7, 5.7, 5.7, 6.08, 6.08, 6.08, 6.35, 6.63, 6.35, 6.35, 6.35, 6.35, 6.63, 6.98, 6.98, 6.98, 7.28, 7.59, 7.59, 7.27, 7.27, 7.55, 7.55, 7.55, 7.81, 7.81, 8.08, 8.08, 8.08, 8.08, 8.37, 8.37, 8.0, 8.0, 8.27, 8.27, 7.9, 7.9, 8.15, 8.15, 8.15, 8.4, 8.0, 8.0, 8.0, 8.0, 7.81, 7.81, 7.71, 7.71, 7.31, 7.31, 7.31, 7.31, 7.2, 6.8, 6.8, 6.8, 6.8, 6.8, 6.67, 6.41, 6.41, 6.41, 6.15, 6.51, 6.51, 7.42, 7.35, 8.14, 8.33, 8.01, 7.6, 7.15, 6.71, 6.02, 6.51, 7.1, 7.1, 6.71, 6.26, 4.38, -0.0, -5.09, -4.8, -3.93, -3.48, -3.72, -4.36, -4.22, -4.37, -4.0, -4.0, -4.0, -3.7, -3.7, -3.7, 5.7, 5.7, 5.7, 5.7, 5.98, 6.35, 6.35, 6.35, 6.35, 6.35, 6.35, 6.35, 6.35, 6.35, 6.35, 6.69, 6.98, 7.28, 7.28, 7.27, 7.27, 7.27, 7.55, 7.55, 7.55, 7.55, 7.81, 8.08, 8.08, 8.08, 8.08, 8.37, 8.0, 8.0, 8.0, 8.27, 8.27, 8.27, 7.9, 8.15, 8.15, 8.15, 8.15, 8.0, 8.0, 8.0, 8.0, 7.81, 7.71, 7.71, 7.71, 7.31, 7.31, 7.31, 7.31, 7.2, 7.2, 7.2, 6.8, 6.8, 6.8, 6.56, 6.41, 6.41, 6.41, 6.51, 6.51, 6.51, 6.7, 8.0, 7.89, 8.33, 8.45, 8.05, 7.6, 7.6, 7.15, 7.1, 6.94, 6.94, 6.21, 5.29, 4.85, 2.4, -3.6, -5.75, -5.05, -5.09, -5.3, -5.13, -5.13, -5.13, -4.28, -4.0, -4.0, -4.0, -4.0, -4.0, 5.7, 5.7, 5.7, 5.7, 5.98, 5.98, 6.35, 6.35, 6.35, 6.35, 6.35, 6.35, 6.35, 6.35, 6.35, 6.69, 6.69, 6.69, 6.97, 6.97, 7.27, 7.27, 7.55, 7.55, 7.55, 7.55, 7.55, 8.08, 8.08, 8.08, 8.08, 8.0, 8.0, 8.0, 8.0, 8.0, 8.27, 7.9, 7.9, 8.15, 8.15, 8.15, 8.15, 8.0, 8.0, 8.0, 8.0, 7.6, 7.71, 7.71, 7.71, 7.31, 7.31, 7.31, 7.31, 7.2, 7.2, 7.2, 7.2, 6.95, 6.56, 6.56, 6.41, 6.41, 6.51, 6.51, 6.51, 6.51, 6.23, 7.44, 7.76, 7.89, 7.63, 7.42, 7.11, 7.55, 7.42, 6.98, 7.12, 6.94, 5.81, 5.75, 5.59, 4.82, -0.0, -5.2, -5.69, -5.72, -5.94, -5.59, -5.59, -5.86, -4.8, -4.6, -4.0, -4.2, -4.2, -4.2, 5.7, 5.7, 5.98, 5.98, 5.98, 5.98, 5.98, 6.35, 6.35, 6.35, 6.35, 6.35, 6.35, 6.35, 6.35, 6.35, 6.69, 6.69, 6.97, 6.97, 6.97, 7.27, 7.55, 7.55, 7.55, 7.55, 7.85, 7.85, 8.08, 7.73, 7.73, 8.0, 8.0, 8.0, 8.0, 8.0, 7.9, 7.9, 7.9, 7.9, 8.15, 8.15, 8.15, 7.76, 8.0, 8.0, 8.0, 7.48, 7.48, 7.48, 7.48, 7.31, 7.31, 7.31, 7.31, 7.2, 7.2, 6.95, 6.95, 6.95, 6.95, 6.95, 6.95, 6.51, 6.51, 6.51, 6.51, 6.23, 6.23, 7.06, 7.44, 7.42, 7.35, 6.7, 6.7, 6.7, 6.7, 6.7, 7.12, 6.65, 6.26, 6.2, 6.21, 5.81, 2.4, -4.57, -6.4, -6.7, -6.35, -6.32, -5.86, -5.86, -5.38, -4.83, -4.6, -4.0, -4.0, -4.0, 5.72, 5.72, 5.72, 5.72, 5.98, 5.98, 5.98, 5.98, 6.35, 6.35, 6.35, 6.35, 6.35, 6.35, 6.35, 6.35, 6.35, 6.97, 6.97, 6.97, 6.97, 6.97, 7.55, 7.55, 7.55, 7.55, 7.85, 7.51, 7.51, 7.51, 7.73, 8.0, 8.0, 8.0, 8.0, 7.64, 7.9, 7.9, 7.9, 7.9, 8.15, 8.15, 7.76, 7.76, 7.76, 8.0, 7.87, 7.48, 7.48, 7.48, 7.48, 7.48, 7.08, 7.08, 7.08, 6.95, 6.95, 6.95, 6.95, 6.95, 6.95, 6.95, 6.95, 6.7, 6.7, 6.51, 6.23, 6.57, 6.57, 6.79, 7.07, 8.0, 7.35, 6.8, 7.12, 6.7, 6.94, 7.11, 7.15, 6.71, 6.71, 6.71, 6.71, 6.71, 3.58, -3.9, -6.7, -7.03, -6.96, -6.68, -6.32, -6.28, -5.86, -5.38, -4.83, -4.83, -4.83, -4.83, 5.72, 5.72, 5.72, 5.72, 5.72, 5.72, 5.72, 5.72, 5.98, 5.98, 6.35, 6.35, 6.35, 6.35, 6.35, 6.35, 6.35, 6.64, 6.97, 6.97, 6.97, 6.97, 6.97, 7.55, 7.23, 7.23, 7.51, 7.51, 7.51, 7.51, 7.51, 7.8, 7.8, 7.8, 7.64, 7.64, 7.9, 7.9, 7.9, 7.9, 7.9, 8.15, 7.76, 7.76, 7.76, 7.87, 7.87, 7.48, 7.48, 7.48, 7.48, 7.48, 7.08, 7.08, 7.08, 6.95, 6.95, 6.95, 6.95, 6.95, 6.95, 6.95, 6.7, 6.7, 6.7, 6.7, 6.79, 6.79, 6.79, 6.87, 7.15, 8.05, 7.76, 8.17, 6.94, 7.11, 7.6, 7.15, 7.15, 7.15, 7.15, 7.15, 7.11, 7.11, 4.38, -3.13, -6.98, -7.35, -7.6, -7.28, -6.68, -6.64, -6.28, -5.86, -5.04, -4.28, -4.28, -4.28, 5.72, 5.72, 5.72, 5.72, 5.72, 5.72, 5.72, 5.72, 5.72, 5.72, 5.72, 5.72, 6.35, 6.35, 6.35, 6.35, 6.35, 6.64, 6.64, 6.97, 6.97, 6.97, 6.97, 6.95, 7.23, 7.51, 7.51, 7.51, 7.51, 7.51, 7.51, 7.8, 7.8, 7.44, 7.44, 7.44, 7.72, 7.72, 7.9, 7.9, 8.15, 7.76, 7.76, 7.76, 7.61, 7.61, 7.87, 7.48, 7.48, 7.48, 7.48, 7.48, 7.48, 7.08, 7.08, 6.95, 6.95, 6.95, 6.95, 6.95, 6.95, 6.95, 6.7, 7.07, 7.07, 7.07, 6.79, 6.79, 6.79, 6.52, 7.15, 7.61, 7.31, 9.11, 7.11, 7.11, 7.6, 7.15, 6.71, 6.65, 6.51, 7.11, 6.98, 7.55, 6.2, 1.58, -5.81, -7.89, -8.14, -7.6, -7.44, -7.06, -6.32, -5.59, -5.13, -4.96, -4.96, -4.96, 5.72, 5.72, 5.72, 5.72, 5.72, 5.72, 5.72, 5.72, 5.72, 5.72, 5.72, 5.72, 6.35, 6.35, 6.35, 6.35, 6.35, 6.64, 6.64, 6.97, 6.97, 6.97, 6.97, 6.95, 7.23, 7.51, 7.51, 7.51, 7.51, 7.51, 7.51, 7.8, 7.8, 7.44, 7.44, 7.44, 7.72, 7.72, 7.9, 7.9, 8.15, 7.76, 7.76, 7.76, 7.61, 7.61, 7.87, 7.48, 7.48, 7.48, 7.48, 7.48, 7.48, 7.08, 7.08, 6.95, 6.95, 6.95, 6.95, 6.95, 6.95, 6.95, 6.7, 7.07, 7.07, 7.07, 6.79, 6.79, 6.79, 6.52, 7.15, 7.61, 7.31, 9.11, 7.11, 7.11, 7.6, 7.15, 6.71, 6.65, 6.51, 6.94, 6.94, 6.98, 7.55, 6.21, 1.34, -5.75, -8.33, -8.14, -8.0, -7.44, -7.06, -6.32, -5.49, -4.96, -4.96, -4.96]}, {"header": {"dx": 0.06612293990616946, "dy": 0.0552356325346848, "nx": 98, "ny": 59, "la1": 35.046912555036876, "la2": 31.78801023549047, "lo1": -121.43107172385933, "lo2": -114.95102361305473, "refTime": "2026041601", "parameterCategory": 1, "parameterNumber": 3}, "data": [-12.09, -11.87, -11.92, -11.92, -11.92, -11.33, -10.72, -10.4, -9.5, -8.87, -7.61, -6.0, -4.83, -3.27, -1.73, -0.78, 0.0, 0.0, 0.0, 0.0, 0.0, 0.0, 0.0, 0.0, -1.73, -4.11, -5.81, -5.51, -5.51, -5.51, -5.09, -4.82, -4.47, -4.02, -3.9, -4.0, -3.93, -3.93, -3.93, -3.48, -3.35, -3.47, -3.68, -3.8, -3.45, -3.95, -3.29, -3.29, -2.51, -1.63, -0.82, -0.82, 0.0, 0.79, 2.41, 3.29, 4.75, 4.75, 4.75, 4.06, 3.19, 3.19, 2.34, 2.41, 2.31, 2.49, 2.49, 2.39, 3.21, 4.83, 5.76, 4.6, 4.0, 3.15, 2.54, 1.73, 0.89, 0.0, 0.99, 4.47, 6.2, 6.2, 6.2, 6.26, 6.26, 5.81, 5.81, 6.26, 6.71, 6.71, 6.65, 6.51, 6.28, 5.82, 5.21, 4.43, 4.01, 4.01, -12.09, -11.87, -11.87, -11.58, -11.58, -11.33, -10.99, -10.4, -9.8, -8.87, -7.9, -7.48, -5.38, -3.6, -2.21, -1.18, 0.0, 0.0, 0.0, 0.0, 0.0, 0.0, 0.0, 0.0, -1.63, -4.01, -5.36, -5.51, -5.6, -5.2, -5.09, -4.85, -4.47, -4.47, -4.57, -4.22, -4.6, -4.6, -4.6, -4.19, -4.43, -5.06, -5.03, -4.96, -5.52, -4.8, -4.13, -3.25, -2.39, -1.62, -0.82, 0.0, 1.62, 2.82, 4.4, 4.75, 4.75, 4.75, 4.06, 3.19, 2.34, 1.52, 1.63, 1.56, 1.62, 1.62, 2.39, 4.2, 5.64, 5.64, 5.64, 4.2, 3.32, 2.57, 1.67, 0.84, 0.0, 0.0, 0.99, 4.47, 6.2, 6.2, 6.2, 6.26, 6.26, 5.81, 5.81, 6.26, 6.71, 6.71, 6.65, 6.51, 6.28, 5.82, 5.21, 4.43, 4.01, 4.01, -12.09, -11.87, -11.87, -11.87, -11.58, -11.33, -10.99, -10.4, -10.09, -9.13, -8.19, -6.64, -6.24, -4.71, -3.09, -1.73, -0.83, -0.83, -0.89, -1.32, -1.6, -1.23, -1.41, -1.41, -1.23, -3.63, -5.29, -5.75, -5.75, -5.75, -6.02, -5.73, -5.36, -5.36, -4.57, -5.2, -4.8, -5.2, -5.2, -5.6, -5.82, -6.06, -6.64, -6.53, -6.42, -4.92, -3.88, -2.35, -0.81, 0.0, 1.68, 3.11, 4.8, 4.87, 5.2, 4.75, 4.06, 3.19, 2.44, 2.34, 1.52, 1.63, 1.69, 1.62, 1.62, 2.47, 4.2, 6.53, 6.42, 6.31, 4.92, 3.36, 2.47, 1.6, 0.85, 0.0, 0.0, 0.0, 3.58, 6.02, 6.51, 6.21, 6.02, 6.2, 5.77, 5.81, 5.81, 6.26, 6.26, 6.26, 6.26, 5.75, 5.51, 5.2, 4.54, 3.63, 3.35, 4.54, -12.37, -11.87, -11.87, -11.87, -11.87, -10.99, -10.99, -10.69, -9.77, -9.42, -8.19, -7.51, -6.53, -5.21, -4.26, -3.09, -2.4, -2.67, -2.51, -1.63, -1.72, -1.32, -2.49, -2.6, -2.6, -3.76, -5.29, -6.02, -5.75, -6.02, -6.51, -6.2, -5.81, -5.81, -5.64, -5.64, -5.6, -6.23, -6.7, -6.8, -7.07, -7.41, -7.35, -5.76, -4.96, -3.8, -1.58, 0.0, 0.85, 3.21, 4.6, 5.63, 5.51, 4.87, 4.87, 4.01, 3.07, 2.34, 1.58, 1.63, 1.63, 1.56, 1.62, 1.54, 2.35, 4.96, 6.95, 7.27, 7.22, 5.7, 4.8, 3.11, 1.68, 1.47, 0.0, -0.84, -0.88, 3.39, 5.51, 6.28, 5.86, 6.02, 6.02, 5.59, 5.75, 5.75, 6.2, 6.02, 6.2, 5.81, 5.36, 5.29, 5.09, 4.6, 4.19, 3.79, 4.19, 5.51, -12.37, -12.16, -11.52, -11.52, -11.28, -11.28, -11.28, -10.69, -10.06, -9.42, -8.73, -7.51, -7.02, -5.53, -4.83, -4.26, -3.69, -3.4, -3.4, -3.2, -3.91, -3.45, -2.8, -2.49, -3.47, -4.02, -6.58, -6.58, -7.01, -6.65, -6.71, -6.71, -6.71, -5.81, -6.14, -6.58, -6.23, -7.06, -7.76, -8.3, -7.82, -6.39, -5.24, -4.03, -2.67, 0.0, 0.84, 3.15, 4.83, 5.76, 5.63, 5.0, 4.68, 4.01, 4.01, 3.29, 2.51, 2.34, 1.58, 0.82, 0.79, 0.82, 0.78, 1.67, 5.1, 7.68, 8.68, 7.9, 6.7, 5.76, 4.8, 3.39, 2.11, 1.6, 0.0, -1.63, 0.0, 3.58, 4.01, 5.09, 5.05, 4.84, 5.2, 5.2, 5.2, 5.75, 5.75, 6.02, 5.51, 5.29, 4.92, 5.36, 5.29, 4.8, 4.6, 4.8, 5.59, 6.07, -11.8, -11.8, -11.8, -11.52, -11.28, -11.28, -10.94, -10.65, -10.06, -9.37, -8.38, -7.44, -7.02, -5.53, -4.26, -4.03, -4.03, -4.26, -4.83, -5.1, -5.24, -5.06, -5.06, -5.01, -5.01, -5.36, -6.58, -7.15, -7.06, -7.6, -7.15, -7.15, -7.1, -6.7, -5.75, -6.02, -5.75, -5.73, -7.1, -7.55, -5.51, -2.98, -0.81, 0.0, 1.63, 3.4, 4.96, 5.64, 5.76, 5.76, 4.92, 3.95, 3.95, 3.95, 3.16, 3.29, 2.34, 1.58, 0.8, 0.0, 0.0, 0.0, 0.77, 4.03, 8.05, 9.65, 8.65, 7.18, 6.42, 5.52, 4.13, 3.29, 2.49, 1.68, 0.0, -1.83, 0.0, 3.93, 3.22, 4.01, 4.11, 3.63, 3.35, 3.79, 4.11, 4.43, 4.84, 4.8, 4.57, 4.82, 5.29, 5.81, 5.75, 5.59, 5.34, 6.02, 6.07, 6.65, -11.8, -11.8, -11.8, -11.52, -11.28, -10.94, -11.23, -10.65, -10.01, -9.37, -8.65, -7.72, -7.02, -5.59, -4.44, -4.26, -4.12, -4.74, -4.96, -5.49, -5.49, -5.89, -5.37, -5.58, -5.01, -5.2, -5.2, -4.02, -4.02, -4.92, -7.15, -7.11, -7.21, -6.44, -6.07, -5.34, -3.58, -3.2, -4.66, -3.47, 0.0, 3.6, 4.46, 4.74, 5.03, 5.59, 6.42, 6.31, 5.76, 5.69, 4.6, 4.71, 4.25, 3.95, 3.16, 2.34, 0.8, 0.0, 0.0, 0.0, 0.0, 0.0, 2.51, 7.42, 9.9, 9.3, 7.9, 7.18, 5.52, 4.8, 3.29, 2.34, 1.52, 0.79, 0.0, 0.0, 2.68, 4.15, 3.93, 2.4, 2.6, 1.7, 1.7, 1.7, 2.6, 2.98, 3.35, 3.93, 4.22, 5.09, 5.16, 5.77, 6.26, 6.2, 6.02, 6.51, 6.51, 6.51, -11.8, -11.8, -11.8, -11.8, -11.28, -11.23, -10.65, -10.59, -9.66, -9.3, -8.55, -7.9, -7.06, -6.32, -5.72, -4.71, -4.6, -4.83, -4.6, -4.96, -4.83, -4.28, -3.88, -4.0, -3.2, -2.6, 0.0, 2.84, 2.48, -1.41, -5.6, -6.23, -5.6, -4.02, -3.22, -0.88, 1.58, 2.68, 2.68, 3.13, 4.92, 6.07, 5.6, 5.72, 5.37, 5.72, 5.64, 6.31, 6.31, 5.92, 4.83, 4.71, 3.95, 3.39, 2.41, 0.8, 0.0, -0.77, -2.44, -2.51, -1.68, 0.89, 6.4, 9.75, 9.6, 9.3, 8.22, 6.57, 4.8, 3.16, 2.44, 0.8, 0.0, 0.0, -0.81, 0.0, 3.13, 4.85, 5.29, 4.38, 1.98, 0.76, -0.0, 0.76, 0.76, 1.55, 2.53, 3.93, 4.98, 5.51, 5.64, 6.21, 6.71, 6.71, 6.65, 6.65, 6.51, 6.51, -12.09, -11.8, -11.8, -11.8, -11.23, -11.23, -10.65, -10.23, -9.94, -9.3, -9.1, -8.68, -9.48, -8.82, -7.4, -6.64, -6.95, -6.04, -5.76, -5.36, -4.96, -4.44, -3.49, -3.36, -2.35, 0.0, 2.32, 4.65, 2.98, 0.0, -2.6, 0.0, 1.9, 1.8, 1.83, 2.76, 4.46, 4.66, 5.09, 5.6, 5.36, 5.72, 5.06, 5.06, 4.14, 4.26, 5.72, 6.98, 7.18, 6.31, 5.92, 4.83, 4.07, 3.25, 1.63, 0.0, 0.0, -2.44, -3.29, -3.88, -0.96, 5.2, 8.63, 10.25, 10.15, 9.67, 8.12, 6.7, 4.68, 2.34, 0.0, -0.71, -1.61, -2.14, -2.89, -1.84, 2.68, 5.09, 6.71, 6.55, 5.09, -0.0, -0.0, -0.0, 0.79, 2.3, 3.49, 4.8, 5.59, 5.77, 6.21, 6.22, 6.66, 7.15, 6.71, 6.65, 6.65, 6.07, -11.72, -11.8, -11.8, -11.8, -11.23, -10.88, -10.59, -10.23, -9.94, -9.5, -9.63, -9.63, -8.55, -8.82, -8.82, -8.43, -8.42, -8.42, -8.0, -6.87, -6.87, -6.52, -6.01, -4.71, -2.26, 0.0, 3.22, 3.79, 1.55, -1.23, 0.0, 4.47, 4.92, 4.66, 4.46, 3.22, 4.11, 4.6, 6.0, 5.37, 5.06, 4.95, 4.03, 3.4, 3.09, 3.91, 5.1, 5.89, 6.53, 6.42, 5.64, 5.06, 4.83, 4.2, 3.32, 3.45, 1.75, -0.89, -3.47, -2.53, 4.82, 9.7, 11.88, 10.95, 10.55, 9.67, 8.53, 7.02, 4.15, 0.8, -1.54, -3.53, -4.17, -4.24, -4.4, -3.35, 2.0, 5.59, 7.15, 7.45, 7.2, 6.08, 1.9, 2.0, 2.24, 3.58, 4.73, 5.64, 6.21, 6.26, 6.26, 6.22, 6.65, 6.71, 6.71, 6.65, 6.65, 6.21, -11.72, -11.44, -11.44, -11.44, -11.23, -10.88, -10.59, -10.51, -9.86, -9.5, -9.76, -9.76, -9.3, -8.65, -8.73, -8.42, -8.42, -6.7, -6.15, -6.15, -8.06, -7.81, -6.55, -3.79, 0.0, 2.53, 2.84, 2.53, 1.27, 0.0, 1.55, 4.0, 3.9, 3.35, 1.8, 1.7, 3.76, 5.06, 5.49, 4.83, 5.1, 4.26, 3.27, 2.33, 2.54, 4.16, 5.06, 5.37, 5.24, 4.83, 5.89, 6.64, 7.76, 8.05, 8.3, 8.63, 7.63, 2.68, -1.4, 4.57, 10.28, 12.42, 12.09, 11.87, 11.2, 10.66, 10.28, 8.85, 5.76, 2.35, -0.85, -4.5, -5.7, -5.7, -6.24, -4.22, 2.0, 6.65, 8.49, 8.56, 7.6, 6.7, 6.06, 3.9, 3.72, 4.4, 5.36, 6.21, 6.22, 6.26, 6.26, 6.71, 6.71, 6.65, 6.26, 6.26, 6.26, 5.75, -11.72, -11.44, -11.44, -11.23, -11.23, -11.16, -10.59, -10.51, -10.23, -9.86, -9.76, -10.13, -9.86, -9.02, -7.3, -6.35, -4.83, -5.08, -4.78, -4.47, -4.47, -3.84, -2.2, -1.41, 1.41, 3.48, 3.16, 1.86, 1.4, 1.27, 1.55, 3.22, 2.95, 2.53, 1.7, 1.84, 3.11, 4.65, 4.95, 4.26, 3.91, 3.27, 2.54, 2.54, 3.68, 4.84, 5.75, 6.13, 6.13, 6.52, 6.82, 8.0, 9.75, 11.15, 11.18, 11.15, 10.14, 5.29, 2.97, 7.85, 12.07, 12.74, 12.3, 11.37, 11.09, 11.75, 12.23, 11.26, 9.05, 7.07, 3.16, -3.16, -5.69, -6.44, -6.82, -5.09, 2.24, 7.56, 9.15, 8.67, 7.67, 6.73, 5.59, 5.24, 4.65, 4.46, 5.31, 6.26, 6.26, 5.81, 5.81, 6.26, 6.26, 6.26, 6.26, 6.26, 5.81, 5.81, -11.72, -11.72, -11.23, -11.23, -11.16, -11.16, -10.59, -10.51, -9.94, -9.86, -9.86, -9.86, -9.86, -9.42, -8.53, -6.97, -5.26, -3.94, -3.97, -3.32, -3.49, -2.8, -1.11, 0.0, 1.12, 1.16, 1.11, 1.13, 1.0, 0.65, 0.79, 1.7, 2.4, 1.7, 1.84, 2.8, 3.64, 4.16, 4.16, 3.4, 2.4, 2.54, 2.4, 2.47, 3.79, 5.64, 6.14, 5.6, 5.6, 6.23, 5.86, 6.98, 8.05, 8.49, 8.94, 8.85, 8.22, 6.28, 3.48, 7.6, 11.18, 11.84, 10.95, 10.43, 10.95, 11.37, 12.14, 12.37, 10.95, 10.43, 7.03, 0.0, -5.29, -6.28, -7.21, -4.22, 5.2, 9.9, 10.0, 8.49, 6.98, 6.32, 5.21, 4.71, 4.42, 4.11, 5.29, 5.81, 6.26, 5.81, 5.77, 6.21, 6.21, 6.21, 6.26, 5.81, 5.36, 5.36, -11.16, -11.52, -11.52, -11.16, -11.16, -10.8, -10.59, -10.51, -9.94, -9.86, -9.86, -9.86, -9.59, -9.66, -9.46, -7.96, -6.29, -4.98, -4.02, -3.53, -3.37, -2.84, -1.74, -0.57, 0.0, 0.0, 0.56, 0.53, 0.55, 0.0, 0.0, 0.0, 1.23, 1.7, 1.84, 2.6, 3.22, 4.29, 3.33, 2.51, 1.65, 1.73, 2.32, 4.43, 5.6, 6.14, 5.09, 5.2, 4.46, 5.2, 5.2, 5.64, 5.81, 5.81, 5.2, 4.15, 4.84, 3.91, 3.8, 6.4, 9.8, 10.47, 10.21, 9.8, 9.33, 9.33, 10.02, 9.58, 9.8, 8.03, 7.35, 1.66, -4.82, -6.65, -6.02, 0.98, 9.05, 10.9, 9.62, 7.97, 6.95, 5.76, 4.6, 3.8, 4.03, 5.15, 6.02, 6.21, 6.22, 5.77, 5.77, 6.21, 6.11, 6.51, 6.07, 6.2, 5.81, 5.36, -11.16, -11.16, -11.16, -11.16, -11.16, -10.8, -10.51, -10.51, -9.94, -9.86, -9.86, -9.86, -9.59, -9.66, -9.46, -8.58, -7.59, -6.27, -5.36, -3.99, -3.99, -3.47, -2.28, -1.17, -0.57, 0.0, 0.0, 0.0, 0.0, 0.0, 0.0, 0.0, 0.0, 1.23, 2.32, 4.02, 5.06, 4.29, 3.6, 1.63, 0.83, 2.66, 3.76, 5.01, 5.81, 6.14, 6.14, 5.6, 5.2, 4.09, 4.09, 4.09, 4.09, 3.72, 4.09, 3.48, 1.55, 0.82, 2.35, 6.01, 8.3, 8.22, 7.44, 7.07, 7.07, 7.6, 7.63, 6.52, 5.37, 4.96, 4.83, 0.96, -4.38, -4.92, 0.0, 8.43, 11.28, 10.51, 9.06, 7.82, 6.42, 4.83, 4.37, 3.69, 3.64, 5.15, 6.7, 6.94, 6.55, 6.51, 6.02, 6.07, 6.07, 6.36, 6.28, 6.2, 5.81, 5.81, -11.16, -11.16, -11.16, -11.16, -10.8, -10.59, -10.51, -10.51, -9.94, -9.94, -9.59, -9.59, -9.94, -9.66, -9.72, -9.17, -8.24, -6.92, -6.25, -5.32, -4.65, -4.13, -2.93, -2.28, -1.17, -0.57, 0.0, 0.0, 0.0, 0.0, 0.0, -0.58, 0.0, 0.0, 1.23, 3.22, 4.29, 3.33, 2.66, 1.32, 1.99, 3.79, 5.01, 6.23, 6.0, 5.81, 6.14, 5.6, 5.01, 4.11, 4.11, 3.48, 3.79, 3.79, 2.98, 2.4, 1.41, 0.0, 2.33, 5.46, 6.39, 6.32, 5.69, 5.03, 4.02, 4.02, 3.35, 3.76, 4.29, 4.75, 3.47, 0.0, -2.4, 2.0, 8.4, 11.28, 11.2, 9.6, 8.56, 7.12, 6.57, 4.83, 4.26, 4.16, 4.43, 5.43, 6.7, 6.7, 6.94, 6.51, 6.51, 5.86, 6.36, 6.54, 6.13, 5.86, 5.64, 5.64, -11.16, -11.16, -11.16, -10.8, -10.59, -10.87, -10.51, -10.51, -10.15, -9.94, -9.94, -9.94, -9.66, -9.66, -9.46, -9.17, -8.58, -7.59, -6.92, -5.8, -5.32, -4.13, -3.47, -2.28, -1.17, 0.0, 0.0, 0.0, 0.0, 0.0, -0.58, -0.56, -1.12, 0.0, 0.88, 2.4, 3.63, 2.6, 2.6, 2.6, 3.79, 4.6, 5.36, 5.2, 5.36, 6.23, 6.23, 5.36, 4.74, 4.02, 4.02, 4.02, 4.02, 3.68, 3.68, 2.66, 1.25, 1.32, 2.33, 4.66, 6.01, 4.96, 3.6, 3.4, 2.4, 1.84, 1.41, 1.7, 3.22, 3.76, 1.23, 0.0, 2.4, 7.41, 9.92, 10.18, 9.6, 9.39, 8.72, 7.79, 6.97, 5.64, 4.83, 4.36, 5.49, 5.46, 6.16, 6.7, 6.7, 6.28, 5.86, 5.86, 6.36, 6.54, 6.4, 5.6, 5.44, 5.44, -11.07, -10.8, -10.8, -10.8, -10.59, -10.51, -10.51, -10.51, -10.51, -9.94, -9.94, -9.94, -9.66, -9.66, -9.13, -8.85, -8.87, -8.24, -6.92, -5.83, -4.65, -4.13, -3.47, -1.74, 0.0, 0.0, -0.58, -0.59, -1.18, -1.67, -1.69, -1.71, -2.26, -1.12, 0.0, 0.88, 2.0, 1.41, 1.41, 2.73, 3.48, 4.46, 4.09, 3.79, 5.01, 5.36, 5.72, 5.06, 3.68, 3.68, 3.68, 3.68, 3.68, 3.91, 3.91, 3.4, 3.6, 3.6, 4.71, 4.96, 4.66, 4.44, 3.35, 2.54, 1.25, 0.78, 0.0, 0.0, 0.0, 0.0, 0.0, 1.68, 5.63, 7.9, 8.66, 7.25, 6.52, 6.6, 7.01, 6.65, 6.45, 5.64, 5.59, 6.08, 6.18, 5.82, 6.4, 6.7, 6.28, 6.7, 6.28, 6.28, 6.36, 6.54, 6.21, 5.43, 5.34, 5.34, -11.07, -11.07, -10.8, -10.59, -10.87, -10.51, -10.51, -10.51, -10.51, -9.94, -9.94, -9.94, -9.66, -9.42, -9.42, -9.48, -8.85, -8.24, -6.96, -5.4, -4.65, -4.62, -4.02, -3.19, -2.49, -1.18, -1.71, -2.35, -3.32, -2.92, -2.92, -2.92, -2.96, -2.32, -1.16, 0.0, 0.0, 0.0, 0.0, 1.3, 2.53, 3.22, 2.98, 3.49, 4.02, 4.02, 4.29, 3.68, 2.66, 2.66, 2.66, 3.68, 3.68, 3.68, 4.75, 5.03, 3.6, 4.71, 4.96, 4.66, 3.52, 3.52, 2.33, 1.65, 0.79, 0.0, 0.0, -0.89, -0.83, 0.0, 1.14, 4.06, 6.4, 6.28, 4.61, 3.25, 2.39, 1.61, 2.31, 4.06, 4.83, 5.59, 5.37, 5.37, 5.77, 5.82, 5.82, 5.69, 5.82, 6.0, 6.0, 6.7, 6.7, 6.07, 6.18, 5.15, 5.2, 5.2, -11.07, -11.07, -10.87, -10.87, -10.51, -10.51, -10.51, -10.51, -10.51, -10.3, -9.94, -9.66, -9.66, -9.42, -9.13, -8.53, -8.53, -8.22, -8.12, -6.45, -5.6, -5.83, -5.86, -6.33, -5.63, -4.92, -4.0, -3.21, -2.8, -3.22, -3.47, -3.84, -3.84, -2.84, -1.76, -0.57, 0.0, 0.0, 0.0, 0.55, 1.19, 1.73, 1.73, 2.2, 2.2, 2.49, 2.49, 2.66, 2.66, 2.26, 2.66, 3.68, 4.29, 5.06, 4.29, 4.16, 4.96, 4.83, 4.71, 3.7, 2.33, 1.2, 1.14, 0.0, 0.0, 0.0, 0.0, 0.0, 0.0, 1.67, 4.13, 5.48, 4.76, 3.2, 0.78, -0.77, -1.51, -1.6, 0.82, 3.32, 4.71, 4.83, 4.95, 5.37, 5.43, 5.72, 5.72, 5.69, 5.43, 5.43, 6.16, 6.4, 6.4, 5.82, 5.72, 5.82, 5.6, 5.6, -11.07, -11.07, -10.87, -10.51, -10.51, -10.51, -10.51, -10.51, -10.51, -10.01, -9.66, -9.66, -9.66, -9.42, -9.46, -9.13, -8.53, -8.22, -7.86, -8.12, -7.12, -6.31, -6.97, -6.71, -6.61, -5.29, -4.0, -2.92, -2.82, -2.22, -3.43, -4.0, -4.0, -3.16, -1.8, -0.59, 0.0, 0.0, 0.0, 0.0, 0.55, 0.61, 1.19, 1.19, 1.57, 2.49, 2.49, 1.4, 1.18, 1.18, 2.49, 4.02, 5.06, 5.06, 5.37, 4.29, 4.83, 4.94, 4.66, 2.33, 1.14, 1.14, 0.0, 0.0, 0.0, 0.0, 0.0, 0.83, 3.4, 4.96, 5.9, 5.72, 3.87, 0.0, -2.39, -3.96, -3.69, -1.58, 0.83, 4.16, 5.24, 5.69, 5.69, 5.72, 6.18, 5.82, 5.82, 5.46, 5.46, 5.05, 5.75, 5.82, 5.82, 5.43, 5.06, 5.09, 5.05, 5.05, -10.96, -10.7, -10.51, -10.51, -10.51, -10.51, -10.51, -10.51, -10.3, -10.01, -9.66, -9.66, -9.42, -9.13, -9.46, -9.46, -8.85, -8.82, -8.82, -8.53, -7.61, -6.08, -6.35, -6.35, -6.34, -5.95, -4.4, -3.32, -2.37, -2.16, -2.48, -3.72, -3.64, -2.86, -1.27, -0.51, 0.0, 0.0, 0.0, 0.0, 0.0, 0.61, 0.61, 1.08, 1.08, 1.73, 1.4, 1.4, 1.18, 1.32, 4.02, 5.36, 5.72, 5.06, 5.06, 4.75, 4.95, 5.59, 4.44, 2.21, 0.79, 0.0, 0.0, -0.84, -0.84, 0.0, 0.89, 4.29, 6.44, 6.87, 7.21, 7.27, 5.52, 0.82, -4.54, -3.79, -2.41, 0.0, 2.53, 3.84, 5.15, 6.08, 6.44, 6.82, 6.82, 6.44, 5.82, 5.82, 5.46, 5.43, 5.43, 5.69, 5.43, 5.06, 5.06, 4.75, 5.75, 5.75, -10.96, -10.96, -10.51, -10.51, -10.51, -10.51, -10.51, -10.51, -9.94, -10.01, -10.01, -9.66, -9.42, -9.13, -9.13, -9.13, -8.85, -8.53, -8.53, -8.24, -7.6, -5.67, -5.06, -5.34, -5.72, -5.72, -5.06, -3.94, -3.3, -2.69, -2.26, -3.04, -3.49, -2.4, -1.08, 0.0, 0.0, 0.0, 0.0, 0.0, 0.0, 0.0, 0.54, 0.61, 1.08, 1.73, 1.32, 1.32, 1.32, 2.8, 4.02, 5.72, 5.06, 5.06, 5.06, 5.06, 4.74, 4.95, 4.71, 3.4, 0.83, 0.0, -0.83, -0.83, 0.0, 1.84, 5.15, 6.8, 6.82, 5.82, 5.36, 5.06, 2.21, -0.0, -1.8, -1.0, 1.58, 2.68, 2.68, 3.47, 4.24, 5.75, 6.4, 6.8, 6.82, 6.44, 5.82, 5.82, 5.82, 5.46, 5.43, 5.09, 4.74, 4.65, 4.36, 5.09, 5.34, 5.34, -10.96, -10.96, -10.79, -10.51, -10.51, -10.51, -10.51, -9.94, -9.94, -9.66, -9.66, -9.66, -9.76, -9.13, -9.13, -9.13, -8.85, -8.85, -8.85, -8.24, -7.6, -6.56, -5.23, -4.63, -5.08, -5.09, -5.08, -5.06, -4.4, -3.45, -3.3, -3.32, -2.89, -2.26, -1.12, -0.53, 0.0, 0.0, 0.0, 0.0, 0.0, 0.0, 0.54, 0.54, 1.19, 1.08, 1.32, 1.4, 2.66, 3.68, 3.91, 3.68, 4.29, 4.29, 4.29, 4.02, 3.63, 3.47, 3.91, 3.6, 2.47, 0.82, 0.88, 0.88, 2.76, 5.82, 7.35, 8.22, 6.44, 5.15, 2.76, 0.0, 0.0, 0.89, 1.3, 3.48, 4.66, 4.47, 4.02, 3.04, 3.58, 4.47, 5.16, 5.86, 5.82, 5.82, 5.82, 5.82, 5.46, 5.43, 5.15, 4.43, 4.36, 4.36, 4.43, 5.43, 5.34, 5.34, -10.96, -10.96, -10.79, -10.79, -10.51, -10.51, -9.94, -9.94, -9.94, -9.66, -9.66, -9.66, -9.46, -9.13, -9.13, -8.85, -8.85, -8.85, -8.56, -8.24, -7.6, -6.96, -6.31, -5.23, -4.6, -4.66, -5.08, -5.08, -5.06, -4.6, -4.12, -3.45, -2.8, -2.19, -1.71, -0.61, -0.58, -0.53, -0.53, -0.53, 0.0, 0.0, 0.0, 0.54, 0.54, 0.54, 0.58, 1.12, 1.73, 1.73, 2.12, 2.54, 2.66, 2.49, 4.02, 4.02, 3.76, 2.53, 2.6, 3.68, 3.91, 2.64, 2.8, 3.47, 5.15, 6.8, 7.89, 7.42, 7.03, 2.6, 0.0, -0.8, 0.0, 1.64, 3.19, 3.25, 2.8, 2.97, 3.6, 2.98, 3.2, 3.47, 4.02, 4.85, 5.09, 5.2, 5.6, 5.21, 5.15, 5.09, 4.95, 4.36, 4.43, 4.29, 4.81, 4.84, 4.93, 4.93, -10.41, -10.41, -10.41, -10.41, -10.15, -10.15, -10.15, -9.94, -9.94, -9.94, -9.66, -9.66, -9.46, -9.13, -9.13, -8.85, -8.85, -8.85, -8.85, -7.95, -7.95, -7.33, -6.96, -5.89, -5.23, -5.04, -4.63, -4.66, -5.32, -4.63, -4.4, -3.94, -3.45, -2.83, -2.21, -1.18, -1.12, -1.14, -0.58, -0.58, -0.53, 0.0, 0.0, 0.59, 0.53, 0.58, 0.53, 0.61, 0.59, 0.55, 0.59, 0.57, 1.25, 2.49, 2.49, 4.02, 2.8, 2.6, 2.6, 2.6, 3.91, 3.8, 3.55, 4.29, 5.58, 7.21, 7.89, 7.42, 5.49, 3.22, 0.0, 0.0, 0.0, 1.54, 3.11, 3.29, 1.45, 1.34, 1.9, 1.74, 1.98, 2.6, 3.47, 4.02, 4.92, 5.09, 5.2, 5.2, 5.21, 4.43, 5.06, 5.06, 4.74, 4.43, 4.46, 4.19, 4.8, 4.8, -10.68, -10.68, -10.41, -10.41, -10.41, -10.15, -10.15, -9.94, -9.94, -9.94, -9.66, -9.66, -9.42, -9.13, -9.13, -8.85, -8.85, -8.53, -8.53, -7.95, -7.95, -7.61, -7.24, -6.31, -5.89, -5.23, -5.02, -4.6, -4.63, -4.63, -4.63, -4.16, -3.97, -3.32, -2.86, -2.89, -2.26, -1.63, -1.65, -1.12, -0.58, -0.58, 0.0, 0.0, 0.58, 0.57, 0.57, 0.0, 0.0, 0.0, 0.0, 0.0, 0.0, 0.0, 0.82, 1.84, 1.32, 1.52, 2.53, 2.76, 2.49, 2.4, 2.33, 3.72, 6.52, 7.12, 7.35, 5.06, 3.72, 1.72, 0.0, 0.0, 0.0, 0.0, 2.41, 3.25, 0.89, -1.34, -0.0, -0.0, 0.87, 1.6, 3.22, 3.74, 4.47, 4.41, 5.09, 4.8, 4.54, 4.81, 4.74, 5.06, 5.06, 4.81, 4.12, 3.84, 4.4, 4.4, -10.68, -10.68, -10.41, -10.41, -10.41, -10.15, -9.94, -9.94, -9.94, -9.94, -9.66, -9.66, -9.42, -9.13, -9.13, -8.85, -8.85, -8.53, -8.24, -8.24, -7.95, -7.61, -7.33, -6.97, -6.31, -5.89, -5.67, -5.67, -5.23, -4.57, -4.6, -4.4, -4.16, -3.97, -3.52, -2.89, -2.73, -2.26, -1.63, -1.2, -1.12, -0.58, 0.0, 0.0, 0.57, 0.57, 0.0, 0.0, 0.0, 0.0, 0.0, -0.57, -0.53, -0.54, 0.0, 0.0, 1.23, 1.52, 2.76, 2.76, 1.84, 0.79, 0.84, 3.55, 6.18, 7.76, 5.77, 3.9, 1.72, 0.0, 0.0, -0.84, -1.67, -0.85, 0.0, 0.78, 0.0, -1.9, -1.8, -0.88, -0.0, 1.73, 2.22, 3.16, 3.74, 4.02, 4.41, 4.6, 4.19, 4.11, 4.43, 4.29, 4.65, 4.43, 3.79, 3.84, 4.4, 4.4, -10.68, -10.68, -10.41, -10.41, -10.41, -10.41, -9.94, -9.94, -9.94, -9.94, -9.66, -9.66, -9.42, -9.13, -9.13, -8.85, -8.85, -8.53, -8.24, -8.24, -8.24, -7.61, -7.33, -6.97, -6.97, -6.97, -6.58, -5.67, -5.67, -5.02, -4.8, -4.6, -4.4, -3.97, -4.0, -3.35, -2.89, -2.73, -2.26, -1.73, -1.2, -0.57, -0.58, 0.0, 0.83, 1.12, 0.56, 0.0, -0.57, -0.56, -0.57, -0.53, -0.61, -0.57, 0.0, 0.0, 0.0, 1.23, 2.76, 2.76, 1.84, 0.0, 0.89, 3.97, 6.44, 6.11, 5.69, 4.16, 0.89, -0.89, -1.73, -1.58, -1.67, -2.57, -2.47, -2.39, -0.78, -0.84, -1.66, -2.4, -0.0, 2.36, 2.82, 3.15, 3.22, 3.47, 3.58, 4.0, 3.48, 3.35, 3.22, 3.47, 3.11, 3.72, 3.79, 4.22, 4.66, 4.66, -10.68, -10.68, -10.68, -10.41, -10.41, -10.41, -9.94, -9.94, -9.94, -9.94, -9.94, -9.66, -9.42, -9.13, -9.13, -8.85, -8.53, -8.53, -8.24, -7.93, -7.93, -7.61, -7.61, -7.61, -6.97, -6.97, -6.33, -6.33, -5.92, -5.23, -5.02, -4.8, -4.6, -4.16, -3.97, -3.52, -3.35, -2.89, -2.23, -1.73, -1.73, -1.2, -0.57, 0.0, 0.0, 0.79, 0.84, 0.0, 0.0, 0.0, 0.0, 0.55, 0.0, 0.0, 0.0, 0.0, 0.0, 0.54, 1.6, 1.84, 0.82, 0.0, 1.63, 3.9, 5.37, 5.06, 5.06, 4.75, 1.7, -0.88, -2.47, -1.73, 0.0, -0.81, -2.39, -3.25, -2.31, -0.79, 0.0, -0.85, 0.79, 3.82, 4.11, 2.86, 2.84, 2.8, 2.68, 2.6, 2.41, 2.2, 1.47, 1.6, 1.47, 2.6, 3.07, 3.83, 4.66, 4.66, -10.3, -10.3, -10.3, -10.41, -10.41, -10.41, -10.23, -9.94, -9.94, -9.94, -9.94, -9.94, -9.42, -9.42, -9.13, -8.85, -8.53, -8.53, -8.24, -7.93, -7.93, -7.61, -7.61, -7.32, -6.98, -6.71, -6.33, -6.33, -5.69, -5.69, -5.02, -5.26, -4.6, -4.63, -3.97, -4.0, -3.52, -2.86, -2.89, -2.23, -1.71, -1.73, -1.2, -0.53, -0.58, 0.0, 0.0, 0.56, 0.58, 1.14, 1.14, 1.23, 1.12, 1.07, 0.59, 0.59, 0.59, 0.59, 0.54, 0.82, 0.0, 0.83, 2.51, 3.55, 3.55, 2.47, 2.76, 4.11, 3.22, 0.0, 0.0, 0.88, 2.67, 2.39, 0.82, -1.56, -2.49, -2.49, -0.75, 0.75, 3.53, 5.21, 3.98, 2.53, 1.84, 1.24, 0.63, 1.26, 0.87, 0.73, 0.76, 0.0, 0.0, 0.73, 3.16, 4.15, 4.85, 4.85, -10.3, -10.3, -10.3, -10.04, -10.04, -9.86, -10.23, -9.94, -9.94, -9.94, -9.94, -9.94, -9.42, -9.42, -9.42, -8.53, -8.53, -8.53, -7.93, -7.93, -7.61, -7.32, -7.32, -7.32, -6.98, -6.98, -6.98, -6.34, -6.45, -5.7, -5.69, -5.69, -5.04, -4.63, -4.42, -4.2, -4.0, -3.35, -2.86, -2.37, -2.23, -1.61, -1.18, -1.2, -1.12, -1.1, -0.55, 0.0, 0.55, 1.18, 1.18, 1.18, 1.18, 1.18, 0.56, 0.57, 0.58, 0.0, 0.0, 0.0, 0.0, 0.83, 2.51, 1.45, 1.63, 0.89, 0.0, 0.0, 0.0, 1.14, 1.7, 3.22, 3.68, 3.45, 2.37, 0.0, -1.54, -0.85, 0.0, 2.83, 4.87, 5.09, 3.6, 2.12, 0.54, -0.0, -0.0, 0.0, 0.0, 0.0, 0.0, 0.0, 0.0, 0.7, 3.22, 4.41, 4.85, 4.85, -10.3, -10.3, -10.3, -9.86, -9.86, -9.86, -9.86, -9.86, -9.59, -9.59, -9.59, -9.37, -9.37, -9.08, -9.08, -8.82, -8.53, -8.22, -8.22, -8.22, -7.91, -7.32, -7.32, -7.32, -6.98, -6.98, -6.98, -6.98, -6.34, -6.45, -5.72, -5.7, -5.29, -5.06, -4.63, -4.66, -4.0, -3.52, -3.35, -2.89, -2.37, -2.23, -1.73, -1.73, -1.1, -1.18, -1.09, 0.0, 0.0, 0.0, 0.0, 0.55, 0.59, 0.59, 0.0, 0.0, 0.0, 0.0, 0.0, 0.0, 0.0, 0.89, 1.25, 0.89, 0.78, 0.0, 0.0, 0.0, 0.0, 0.0, 2.35, 3.33, 1.72, 0.0, 0.0, 0.0, 0.0, 0.77, 2.83, 3.69, 3.53, 2.88, 2.15, 1.47, 0.0, -1.24, -1.6, -1.7, 0.0, 0.0, 0.0, -0.7, -0.73, 0.76, 3.51, 4.47, 4.47, 4.47, -10.3, -10.3, -10.13, -10.13, -9.86, -9.86, -9.86, -9.86, -9.59, -9.59, -9.37, -9.37, -9.37, -9.08, -8.82, -8.82, -8.82, -8.22, -8.22, -8.22, -7.6, -7.6, -7.32, -7.32, -6.98, -6.98, -6.98, -6.98, -6.98, -5.95, -5.72, -5.32, -5.32, -5.08, -5.08, -4.66, -4.44, -4.0, -3.56, -3.37, -2.89, -2.23, -2.4, -1.73, -1.73, -1.18, -1.09, -0.58, -0.58, 0.0, 0.0, 0.0, 0.0, 0.0, 0.0, 0.0, 0.0, 0.0, 0.0, 0.0, 0.0, 0.0, 0.0, 1.32, 0.82, 0.0, 0.0, 0.0, 0.0, 0.0, 1.63, 2.4, 0.0, -1.6, -1.65, 0.0, 1.61, 3.19, 3.68, 2.76, 1.46, 0.71, 0.0, 0.0, -1.0, -1.9, -2.17, -2.12, -0.76, 0.0, 0.0, 0.0, 0.0, 1.9, 3.58, 4.02, 4.02, 4.02, -10.13, -10.13, -10.13, -10.13, -9.86, -9.86, -9.86, -9.86, -9.86, -9.37, -9.37, -9.37, -9.37, -9.37, -8.5, -8.5, -8.5, -8.22, -8.22, -8.22, -7.6, -7.6, -7.6, -7.32, -6.98, -6.98, -6.98, -6.98, -6.98, -6.34, -5.7, -5.06, -5.08, -5.08, -5.34, -5.09, -4.69, -4.69, -4.03, -3.37, -3.37, -2.73, -2.4, -1.71, -1.71, -1.71, -1.16, -1.16, -0.58, -0.58, -0.55, -0.55, 0.0, 0.0, 0.0, 0.0, 0.0, 0.0, 0.0, 0.0, 0.0, 0.0, 0.0, 1.32, 1.32, 0.0, 0.0, 0.0, 0.0, 0.0, 0.78, 1.18, 0.0, -0.79, -0.77, 0.0, 2.33, 3.07, 3.07, 1.57, 0.0, -0.71, -1.39, -0.71, 0.0, -1.2, -1.79, -1.0, 0.0, 0.0, 0.0, 0.0, 0.0, 2.23, 3.58, 3.58, 3.58, 3.58, -10.13, -10.13, -10.13, -10.13, -10.13, -9.86, -9.86, -9.86, -9.66, -9.37, -9.37, -9.37, -9.37, -8.78, -8.78, -8.5, -8.22, -8.22, -8.22, -7.9, -7.6, -7.6, -7.6, -7.32, -6.98, -6.98, -6.98, -6.61, -6.34, -6.34, -5.95, -5.29, -5.06, -4.66, -4.44, -4.69, -4.69, -4.45, -4.03, -3.81, -3.6, -2.92, -2.4, -1.71, -1.71, -1.71, -1.71, -1.16, -1.16, -1.16, -1.16, -0.55, -0.55, -0.59, -0.56, -0.56, -0.57, -0.57, -0.58, -0.59, -0.59, 0.0, 0.0, 0.0, 0.83, 1.25, 0.89, 0.83, 0.0, 0.0, 0.0, 0.0, 0.0, 0.82, 0.0, 0.0, 0.8, 1.61, 1.57, 0.0, -0.69, -2.06, -2.89, -1.36, 0.85, 1.26, 0.0, 0.85, 0.0, 0.0, 0.0, 0.0, 0.87, 2.6, 3.13, 3.13, 3.13, 3.13, -9.76, -9.76, -9.76, -9.76, -9.76, -9.5, -9.5, -9.3, -9.3, -9.3, -9.02, -9.02, -8.78, -8.78, -8.78, -8.78, -8.22, -8.22, -8.22, -7.9, -7.6, -7.6, -7.6, -7.6, -7.32, -6.98, -6.98, -6.34, -6.34, -6.34, -5.95, -5.7, -5.29, -4.63, -4.66, -4.44, -4.69, -4.03, -4.03, -3.37, -3.37, -2.92, -2.4, -1.67, -1.73, -1.71, -1.71, -1.71, -1.71, -1.71, -1.16, -1.09, -1.18, -1.18, -1.1, -1.2, -1.12, -1.12, -1.14, -0.59, -0.59, -1.07, 0.0, 0.0, 0.0, 0.0, 0.0, 0.0, 0.0, 0.0, 0.0, 0.0, 1.14, 2.19, 1.6, 0.0, -0.79, -0.8, -0.78, -1.43, -1.41, -2.21, -3.0, 0.0, 2.68, 2.97, 2.6, 0.85, 0.0, 0.0, 0.0, 0.0, 1.74, 2.98, 3.39, 3.13, 2.24, 2.68, -9.76, -9.76, -9.76, -9.76, -9.76, -9.58, -9.3, -9.3, -9.3, -9.3, -9.02, -8.78, -8.78, -8.78, -8.78, -8.78, -8.22, -7.9, -7.9, -7.6, -7.6, -7.6, -7.6, -7.6, -7.32, -6.98, -6.98, -6.7, -6.34, -6.34, -5.95, -5.7, -5.7, -5.29, -4.63, -4.42, -4.0, -4.0, -4.03, -3.56, -3.37, -2.89, -2.4, -1.67, -1.16, -1.69, -2.21, -2.37, -2.23, -1.71, -1.73, -1.73, -1.73, -1.73, -1.63, -1.2, -1.12, -1.23, -1.05, -1.16, -1.16, -1.19, -1.32, -0.82, -0.78, 0.0, 0.0, 0.0, -0.78, -0.78, 0.0, 0.0, 0.0, 2.39, 3.14, 2.37, 0.0, -1.63, -2.82, -2.93, -2.25, -2.18, 0.0, 3.04, 3.47, 3.04, 2.23, 0.99, 0.0, 0.0, 0.0, 0.87, 1.74, 2.98, 2.98, 2.97, 2.4, 2.24, -9.76, -9.76, -9.76, -9.76, -9.58, -9.58, -9.3, -9.3, -9.3, -9.3, -9.08, -8.78, -8.78, -8.78, -8.78, -8.45, -8.19, -7.9, -7.9, -7.6, -7.6, -7.6, -7.6, -7.6, -7.27, -6.98, -6.7, -6.7, -6.34, -6.34, -5.95, -5.7, -5.7, -5.29, -5.06, -4.63, -3.97, -4.2, -4.0, -3.35, -3.35, -2.89, -2.89, -2.4, -1.6, -1.69, -2.21, -2.23, -2.26, -2.26, -2.26, -1.73, -1.63, -1.76, -1.76, -1.65, -1.8, -1.14, -1.16, -1.16, -1.16, -1.19, -1.19, -1.32, -1.32, -1.18, -0.78, -0.83, -0.78, 0.0, 0.0, 0.0, 0.0, 1.32, 3.53, 5.6, 4.13, 0.0, -0.8, -1.49, -0.74, 0.76, 4.07, 5.43, 4.43, 3.16, 2.21, 1.74, 0.98, 0.88, 0.88, 1.6, 2.21, 2.98, 2.98, 2.6, 1.9, 2.4, -9.76, -9.76, -9.76, -9.58, -9.58, -9.58, -9.58, -9.3, -9.3, -8.73, -8.73, -8.73, -8.78, -8.45, -8.45, -8.19, -8.19, -8.19, -7.9, -7.6, -7.6, -7.6, -7.6, -7.27, -6.98, -6.98, -6.7, -6.7, -6.34, -6.34, -6.34, -5.7, -5.7, -5.29, -5.06, -4.63, -4.63, -3.97, -3.97, -3.52, -3.52, -3.35, -2.89, -2.89, -2.86, -2.39, -2.21, -2.26, -1.63, -1.63, -1.63, -1.63, -1.76, -1.76, -1.65, -1.65, -1.8, -1.14, -1.16, -1.16, -1.16, -1.73, -2.49, -1.32, -1.4, -1.18, -0.83, -1.25, -0.89, 0.0, 0.0, 0.0, 0.0, 0.0, 1.25, 5.69, 6.45, 3.88, 2.51, 2.6, 3.11, 4.94, 5.86, 5.78, 4.8, 3.79, 2.53, 1.98, 1.8, 1.66, 1.66, 1.8, 2.53, 2.98, 2.98, 1.98, 2.21, 2.21, -9.21, -9.21, -9.21, -9.21, -9.21, -9.21, -9.21, -8.94, -8.73, -8.73, -8.73, -8.73, -8.45, -8.45, -8.45, -8.19, -8.19, -8.19, -7.9, -7.6, -7.6, -7.6, -7.6, -6.98, -6.98, -6.98, -6.98, -6.7, -6.34, -6.34, -6.34, -5.7, -5.7, -5.29, -5.06, -5.06, -4.63, -4.42, -3.97, -3.97, -3.52, -3.52, -3.35, -3.35, -3.52, -2.83, -2.19, -1.69, -1.61, -1.18, -1.18, -1.18, -1.1, -1.1, -1.2, -1.12, -1.14, -1.14, -1.14, -1.16, -1.7, -1.7, -1.7, -1.18, -1.18, -1.18, 0.0, -1.18, -0.82, 0.0, 0.0, 0.0, -1.4, -1.72, -1.32, 0.0, 3.11, 4.87, 4.8, 5.64, 5.78, 5.7, 5.62, 4.87, 4.31, 3.21, 2.47, 1.8, 1.6, 1.66, 1.66, 1.98, 2.6, 2.6, 1.98, 2.21, 2.21, 2.21, -9.21, -9.21, -9.21, -9.21, -9.21, -9.21, -9.21, -9.01, -8.73, -8.73, -8.73, -8.73, -8.45, -8.45, -8.19, -8.19, -8.19, -8.19, -8.19, -7.6, -7.6, -7.6, -7.3, -6.98, -6.98, -6.98, -6.98, -6.7, -6.34, -6.34, -6.08, -5.7, -5.7, -5.29, -5.06, -5.06, -4.63, -4.63, -3.97, -3.97, -3.97, -3.52, -3.52, -3.52, -3.52, -2.83, -2.3, -1.67, -1.69, -1.69, -1.16, -1.16, -1.16, -1.18, -1.18, -1.1, -1.12, -1.12, -1.14, -1.14, -1.67, -1.84, -1.84, -1.18, -1.18, 0.0, 0.0, 0.0, 0.0, 0.0, 0.0, -0.83, -1.73, -2.51, -2.67, -2.4, 0.0, 2.34, 4.65, 5.4, 5.51, 5.0, 4.23, 3.46, 2.82, 2.11, 1.55, 0.79, 0.99, 0.98, 0.87, 1.9, 1.9, 1.98, 1.74, 2.6, 2.6, 2.6, -9.21, -9.21, -9.21, -9.21, -9.21, -9.21, -9.21, -9.01, -8.73, -8.73, -8.73, -8.73, -8.73, -8.45, -8.19, -8.19, -8.19, -8.19, -8.19, -7.3, -7.3, -7.3, -7.3, -6.98, -6.98, -6.98, -6.98, -6.63, -6.63, -6.08, -6.08, -5.7, -5.7, -5.46, -5.06, -5.06, -4.63, -4.63, -4.42, -3.97, -3.97, -3.97, -3.52, -3.52, -3.52, -3.32, -2.83, -2.19, -2.33, -1.78, -1.69, -1.69, -1.81, -1.16, -1.09, -1.1, -1.2, -1.12, -1.65, -1.8, -1.67, -1.67, -2.32, -1.67, -1.25, 0.0, 0.0, 0.78, 0.78, 0.0, 0.0, -1.63, -2.51, -3.09, -3.27, -2.54, -0.81, 0.79, 3.19, 4.75, 5.6, 4.84, 3.68, 2.76, 1.45, 0.72, 0.0, 0.0, 0.0, 0.0, 1.6, 1.6, 1.9, 1.74, 2.21, 2.98, 2.98, 2.98, -9.21, -9.21, -9.21, -9.21, -9.21, -9.21, -9.01, -9.01, -8.73, -8.73, -8.73, -8.73, -8.73, -8.45, -8.19, -8.19, -8.19, -8.19, -7.86, -7.59, -7.3, -7.3, -6.98, -6.98, -6.98, -6.98, -6.98, -6.63, -6.63, -6.08, -6.08, -5.98, -5.98, -5.72, -5.06, -5.06, -4.63, -4.63, -4.42, -3.97, -3.97, -3.97, -3.97, -3.32, -3.52, -3.52, -3.52, -2.86, -2.86, -2.33, -2.21, -2.21, -2.21, -1.71, -1.71, -1.73, -1.63, -1.76, -1.76, -1.65, -1.8, -1.8, -2.32, -2.32, -1.23, 0.0, 0.0, 0.0, 0.0, 0.0, -0.89, -1.73, -2.67, -2.4, -2.54, -1.58, -0.81, 0.0, 1.63, 3.16, 4.75, 4.81, 3.23, 2.1, 0.73, 0.0, -0.76, 0.0, 0.0, 0.0, 2.21, 2.0, 1.9, 2.21, 2.98, 3.47, 3.47, 3.47, -8.84, -8.84, -8.84, -8.84, -8.65, -9.01, -9.01, -9.01, -9.01, -8.73, -8.73, -8.73, -8.73, -8.73, -8.19, -8.19, -8.19, -7.86, -7.59, -7.59, -7.3, -7.3, -6.98, -6.98, -6.98, -6.98, -6.98, -6.63, -6.34, -6.08, -6.35, -5.98, -5.98, -5.72, -5.32, -5.32, -5.32, -4.42, -4.42, -4.42, -3.97, -3.97, -3.97, -3.78, -3.52, -3.52, -3.52, -2.86, -2.86, -2.86, -2.71, -2.21, -2.37, -2.23, -2.4, -2.26, -2.26, -2.29, -2.29, -2.29, -2.32, -2.32, -2.32, -2.32, -1.67, -1.25, 0.0, -1.25, -1.25, -1.63, -1.73, -1.73, -1.84, -1.65, -1.75, -0.8, -0.81, 0.0, 0.82, 2.39, 3.29, 3.96, 3.96, 2.76, 0.74, -0.72, -1.0, 0.0, 0.0, 1.58, 2.0, 2.4, 2.4, 2.6, 3.2, 3.47, 3.47, 3.47, -8.65, -8.65, -8.65, -8.65, -8.65, -8.65, -8.65, -8.65, -8.65, -8.38, -8.38, -8.73, -8.73, -8.73, -8.19, -8.19, -7.86, -7.86, -7.86, -7.59, -7.59, -7.3, -6.98, -6.98, -6.98, -6.98, -6.98, -6.63, -6.34, -6.08, -6.08, -5.98, -5.98, -5.72, -5.32, -5.32, -5.32, -4.66, -4.66, -4.42, -3.97, -3.97, -3.97, -4.0, -3.52, -3.52, -3.52, -3.35, -2.86, -2.86, -2.89, -2.89, -2.89, -2.23, -2.4, -2.26, -2.26, -2.26, -2.29, -2.29, -2.29, -2.32, -2.32, -2.32, -2.36, -2.4, -1.25, -1.25, -1.25, -0.83, -1.55, -1.73, -1.65, -1.75, -1.58, -0.8, -0.85, 0.0, 0.81, 1.6, 2.39, 3.07, 4.75, 4.4, 0.76, -1.34, -0.0, 0.0, 1.0, 0.8, 1.26, 2.0, 2.54, 2.6, 3.47, 4.02, 4.02, 4.02, -8.65, -8.65, -8.65, -8.65, -8.65, -8.65, -8.65, -8.65, -8.65, -8.65, -8.38, -8.38, -8.38, -8.49, -8.49, -7.86, -7.86, -7.86, -7.86, -7.59, -7.59, -7.3, -6.98, -6.98, -6.98, -6.98, -6.98, -6.63, -6.63, -6.08, -6.08, -5.98, -5.98, -5.72, -5.32, -5.32, -5.32, -5.08, -4.66, -4.66, -4.66, -4.2, -4.2, -4.0, -4.0, -3.52, -3.52, -3.35, -3.35, -2.86, -2.89, -2.89, -2.89, -2.73, -2.4, -2.4, -2.26, -2.75, -2.96, -2.96, -2.77, -3.0, -2.8, -2.8, -2.82, -2.64, -1.63, -0.89, -0.79, -0.84, -0.84, -1.58, -1.65, -1.75, -1.58, -1.58, -0.8, 0.0, 0.0, 1.67, 1.6, 2.47, 4.92, 5.1, 2.4, -0.0, 1.34, 1.26, 1.0, 1.0, 1.6, 2.0, 2.97, 3.39, 4.02, 5.36, 5.36, 5.36, -8.65, -8.65, -8.65, -8.65, -8.65, -8.65, -8.65, -8.65, -8.65, -8.65, -8.65, -8.38, -8.15, -8.15, -8.15, -8.15, -7.86, -7.86, -7.59, -7.59, -7.59, -7.28, -6.98, -6.98, -6.98, -6.98, -6.63, -6.63, -6.63, -6.35, -6.35, -5.98, -5.98, -5.72, -5.72, -5.32, -5.32, -5.08, -4.66, -4.66, -4.66, -4.2, -4.2, -4.0, -4.0, -3.52, -3.52, -3.35, -3.35, -3.56, -2.89, -2.89, -2.89, -2.73, -2.92, -2.92, -2.92, -2.75, -2.75, -2.96, -2.96, -2.77, -3.0, -3.0, -3.47, -3.55, -2.51, -1.73, -0.89, -0.84, -1.65, -1.58, -2.44, -2.44, -2.31, -1.75, -0.84, 0.0, 0.0, 0.84, 1.58, 2.31, 3.45, 4.42, 2.97, 0.85, 1.26, 1.79, 2.0, 2.23, 2.54, 2.54, 3.04, 4.02, 5.75, 6.98, 6.98, 6.98, -8.65, -8.93, -8.65, -8.65, -8.65, -8.65, -8.65, -8.65, -8.65, -8.65, -8.65, -8.65, -8.15, -8.15, -8.15, -8.15, -7.86, -7.86, -7.59, -7.59, -7.59, -7.27, -6.97, -6.98, -6.98, -6.98, -6.63, -6.63, -6.35, -6.35, -6.35, -5.98, -5.98, -5.72, -5.72, -5.32, -5.32, -5.08, -4.66, -4.66, -4.66, -4.66, -4.2, -4.0, -4.0, -4.0, -3.52, -3.35, -3.35, -3.56, -2.89, -2.89, -2.89, -2.73, -2.92, -2.92, -2.92, -2.92, -2.75, -2.75, -2.96, -2.96, -3.42, -3.45, -3.45, -3.45, -3.2, -2.51, -2.51, -1.73, -1.73, -1.73, -2.54, -3.91, -2.44, -2.54, -1.65, -0.79, 0.0, 0.0, 0.84, 1.65, 1.65, 2.64, 1.74, 1.74, 2.4, 2.24, 2.24, 2.54, 2.97, 3.13, 4.02, 5.59, 7.21, 8.14, 8.14, 8.14, -8.55, -8.55, -8.55, -8.65, -8.65, -8.65, -8.65, -8.65, -8.65, -8.65, -8.65, -8.65, -8.44, -8.15, -8.15, -8.15, -7.86, -7.59, -7.59, -7.59, -7.27, -7.27, -6.97, -6.97, -6.69, -6.69, -6.35, -6.35, -6.35, -6.35, -6.35, -5.98, -5.98, -5.72, -5.72, -5.32, -5.32, -5.08, -5.08, -4.66, -4.66, -4.66, -4.2, -4.0, -4.0, -4.0, -3.52, -3.35, -3.35, -3.56, -3.56, -2.89, -2.89, -2.89, -2.92, -2.92, -2.92, -2.92, -2.92, -2.92, -3.42, -3.42, -3.42, -3.42, -4.1, -4.1, -4.03, -4.03, -3.4, -2.51, -2.64, -2.51, -3.2, -3.4, -4.12, -3.27, -2.4, -0.89, 0.0, 0.0, 0.0, 0.89, 0.89, 2.24, 2.41, 2.84, 2.6, 2.4, 2.0, 2.24, 3.13, 4.41, 5.75, 7.35, 8.3, 8.4, 8.4, 8.4, -8.55, -8.55, -8.55, -8.55, -8.29, -8.65, -8.65, -8.65, -8.65, -8.65, -8.65, -8.44, -8.44, -8.15, -8.15, -8.15, -8.15, -7.59, -7.59, -7.59, -7.27, -7.27, -6.97, -6.97, -6.97, -6.69, -6.35, -6.35, -6.35, -6.35, -6.35, -5.98, -5.98, -5.72, -5.72, -5.32, -5.32, -5.08, -5.08, -4.66, -4.66, -4.66, -4.2, -4.0, -4.0, -4.0, -3.52, -3.35, -3.35, -3.56, -3.56, -3.37, -2.89, -2.89, -3.09, -2.92, -3.4, -3.4, -3.4, -3.4, -3.4, -3.42, -3.42, -3.84, -4.08, -4.47, -4.47, -4.08, -3.27, -2.67, -2.4, -2.4, -2.67, -1.63, -1.72, -4.42, -2.51, -1.63, -0.89, -0.89, 0.0, 0.0, 0.88, 1.58, 1.55, 2.68, 2.53, 2.21, 2.98, 3.6, 4.8, 6.07, 7.42, 8.0, 8.0, 8.4, 8.4, 8.4, -8.55, -8.55, -8.55, -8.55, -8.29, -8.29, -8.29, -8.08, -8.44, -8.08, -8.08, -8.08, -8.08, -8.44, -8.15, -8.15, -8.15, -7.88, -7.59, -7.59, -7.27, -7.27, -6.97, -6.97, -6.97, -6.69, -6.69, -6.35, -6.35, -6.35, -6.35, -5.98, -5.98, -5.72, -5.72, -5.32, -5.32, -5.08, -5.08, -4.66, -4.66, -4.66, -4.2, -4.0, -4.0, -4.0, -4.0, -3.35, -3.35, -3.56, -3.56, -3.37, -3.37, -3.37, -3.37, -3.6, -3.4, -3.4, -3.4, -3.4, -3.4, -3.64, -4.08, -4.08, -4.08, -4.47, -4.73, -4.73, -4.12, -3.27, -2.44, -1.67, -0.8, 0.0, 0.0, 0.0, -1.72, -1.63, -0.89, -0.89, 0.0, 0.0, 0.88, 1.79, 1.7, 2.4, 2.95, 3.48, 4.46, 5.09, 6.32, 7.28, 8.0, 8.0, 8.0, 8.14, 8.14, 8.14, -8.55, -8.55, -8.55, -8.55, -8.37, -8.08, -8.08, -8.08, -8.08, -8.08, -8.08, -8.08, -8.08, -8.08, -8.08, -7.81, -8.15, -7.88, -7.88, -7.27, -7.27, -7.27, -6.97, -6.97, -6.97, -6.97, -6.69, -6.35, -6.35, -6.35, -6.35, -5.98, -5.72, -5.72, -5.72, -5.32, -5.32, -5.32, -5.08, -4.66, -4.66, -4.66, -4.66, -4.0, -4.0, -4.0, -4.0, -3.35, -3.56, -3.56, -3.56, -3.37, -3.37, -3.37, -3.37, -3.6, -3.6, -3.6, -3.4, -3.4, -3.4, -3.83, -4.08, -4.08, -4.08, -4.73, -4.73, -4.73, -4.46, -4.0, -3.15, -1.67, -0.85, 0.0, 0.0, 0.0, 0.0, -0.89, -1.73, -1.73, -0.78, 0.88, 0.81, 1.2, 1.8, 2.47, 2.88, 4.36, 6.06, 7.32, 7.32, 7.32, 7.85, 8.0, 8.0, 8.0, 8.0, 8.0, -8.55, -8.55, -8.55, -8.55, -8.37, -8.37, -8.08, -8.08, -8.08, -8.08, -8.08, -8.08, -8.08, -8.08, -8.08, -7.81, -7.81, -7.81, -7.55, -7.55, -7.27, -7.27, -6.97, -6.97, -6.97, -6.97, -6.97, -6.35, -6.35, -6.35, -6.35, -5.72, -5.72, -5.72, -5.72, -5.72, -5.32, -5.08, -5.08, -4.66, -4.66, -4.66, -4.66, -4.0, -4.0, -4.0, -4.0, -3.8, -3.56, -3.56, -3.56, -3.37, -3.37, -3.37, -3.37, -3.6, -3.6, -3.6, -3.6, -4.05, -3.83, -3.83, -4.08, -4.08, -4.73, -4.73, -4.73, -4.73, -5.1, -4.96, -3.45, -3.15, -2.54, -1.65, -0.79, -0.84, -1.65, -1.55, -2.67, -1.73, 0.0, 0.82, 1.6, 0.96, 2.68, 2.6, 3.55, 5.0, 6.68, 6.98, 6.98, 7.33, 7.54, 7.67, 8.0, 8.4, 8.4, 8.4, -8.55, -8.55, -8.37, -8.37, -8.37, -8.37, -8.37, -8.08, -8.08, -8.08, -8.08, -8.08, -8.08, -8.08, -8.08, -8.08, -7.81, -7.81, -7.55, -7.55, -7.55, -7.27, -6.97, -6.97, -6.97, -6.97, -6.64, -6.64, -6.35, -6.08, -6.08, -5.72, -5.72, -5.72, -5.72, -5.72, -5.08, -5.08, -5.08, -5.08, -4.66, -4.66, -4.66, -4.44, -4.0, -4.0, -4.0, -4.03, -4.03, -4.03, -4.03, -3.37, -3.37, -3.37, -3.37, -3.6, -3.6, -4.05, -4.05, -4.05, -4.05, -4.05, -4.05, -4.73, -4.73, -4.73, -4.73, -5.1, -5.1, -5.49, -4.96, -4.12, -3.27, -2.51, -2.51, -2.51, -2.51, -2.51, -2.67, -0.83, 0.0, 0.89, 0.78, 0.0, 1.2, 1.83, 3.2, 4.46, 5.64, 6.32, 7.33, 7.33, 7.69, 8.05, 7.67, 8.0, 8.0, 8.0, -8.0, -8.0, -8.0, -8.0, -8.37, -8.37, -8.37, -8.37, -8.08, -8.08, -8.08, -8.08, -8.08, -8.08, -8.08, -8.08, -8.08, -7.55, -7.55, -7.55, -7.55, -7.55, -6.97, -6.97, -6.97, -6.97, -6.64, -6.35, -6.35, -6.35, -6.08, -5.72, -5.72, -5.72, -5.72, -5.46, -5.08, -5.08, -5.08, -5.08, -4.66, -4.66, -4.44, -4.44, -4.44, -4.0, -4.24, -4.03, -4.03, -4.03, -4.03, -4.03, -3.81, -3.81, -3.81, -4.05, -4.05, -4.05, -4.05, -4.05, -4.05, -4.05, -4.05, -4.46, -4.46, -4.73, -5.1, -5.38, -5.38, -5.1, -4.71, -4.0, -3.27, -3.4, -2.67, -2.51, -1.73, -0.79, 0.0, 0.0, 0.0, 0.0, 0.0, 0.0, 0.0, 0.98, 2.51, 3.91, 4.87, 5.94, 6.32, 6.98, 7.33, 7.69, 8.05, 8.05, 8.05, 8.05, -8.0, -8.0, -8.0, -8.0, -8.0, -8.0, -8.0, -8.0, -8.37, -8.37, -8.08, -8.08, -8.08, -8.08, -8.08, -8.08, -8.08, -7.85, -7.55, -7.55, -7.55, -7.55, -7.55, -6.97, -6.67, -6.67, -6.35, -6.35, -6.35, -6.35, -6.35, -6.0, -6.0, -6.0, -5.46, -5.46, -5.08, -5.08, -5.08, -5.08, -5.08, -4.66, -4.44, -4.44, -4.44, -4.24, -4.24, -4.03, -4.03, -4.03, -4.03, -4.03, -3.81, -3.81, -3.81, -4.05, -4.05, -4.05, -4.05, -4.05, -4.05, -4.05, -4.46, -4.46, -4.46, -4.46, -5.1, -5.1, -5.1, -5.72, -5.36, -4.83, -3.45, -2.33, -1.73, -0.79, 0.0, 0.0, 0.0, 0.0, 0.0, 0.0, -0.79, -0.79, -0.88, -0.0, 1.55, 3.27, 3.8, 4.37, 5.94, 6.64, 6.98, 7.33, 7.92, 7.85, 7.85, 7.85, -8.0, -8.0, -8.0, -8.0, -8.0, -8.0, -8.0, -8.0, -8.0, -8.0, -8.0, -8.0, -8.08, -8.08, -8.08, -8.08, -8.08, -7.85, -7.85, -7.55, -7.55, -7.55, -7.55, -6.95, -6.67, -6.35, -6.35, -6.35, -6.35, -6.35, -6.35, -6.0, -6.0, -5.72, -5.72, -5.72, -5.34, -5.34, -5.08, -5.08, -4.66, -4.44, -4.44, -4.44, -4.69, -4.69, -4.24, -4.03, -4.03, -4.03, -4.03, -4.03, -4.03, -3.81, -3.81, -4.05, -4.05, -4.05, -4.05, -4.05, -4.05, -4.05, -4.46, -4.71, -4.71, -4.71, -5.1, -5.1, -5.1, -5.44, -5.36, -4.69, -3.37, -2.28, -0.79, -0.79, 0.0, 0.0, 0.0, -0.83, -1.63, -0.79, -1.55, -0.84, -0.89, -1.58, -0.0, 1.58, 2.44, 3.8, 4.96, 5.49, 6.32, 6.98, 7.32, 7.44, 7.44, 7.44, -8.0, -8.0, -8.0, -8.0, -8.0, -8.0, -8.0, -8.0, -8.0, -8.0, -8.0, -8.0, -8.08, -8.08, -8.08, -8.08, -8.08, -7.85, -7.85, -7.55, -7.55, -7.55, -7.55, -6.95, -6.67, -6.35, -6.35, -6.35, -6.35, -6.35, -6.35, -6.0, -6.0, -5.72, -5.72, -5.72, -5.34, -5.34, -5.08, -5.08, -4.66, -4.44, -4.44, -4.44, -4.69, -4.69, -4.24, -4.03, -4.03, -4.03, -4.03, -4.03, -4.03, -3.81, -3.81, -4.05, -4.05, -4.05, -4.05, -4.05, -4.05, -4.05, -4.46, -4.71, -4.71, -4.71, -5.1, -5.1, -5.1, -5.44, -5.36, -4.69, -3.37, -2.28, -0.79, -0.79, 0.0, 0.0, 0.0, -0.83, -1.63, -1.73, -1.73, -1.55, -0.84, -0.78, 0.0, 0.82, 1.67, 2.44, 4.0, 4.96, 5.49, 6.32, 7.06, 7.44, 7.44, 7.44]}]